                ,  0.301,  0.397,  0.494,  0.590,  0.687,  0.784,  0.880,  0.977,  1.073,  1.170,  1.267,  1.363,  1.460,  1.556,  1.653,  1.749,  1.846,  1.943,  2.039,  2.136,  2.232,  2.329,  2.426,  2.522,  2.619,  2.715,  2.812,  2.909,  3.005,  3.102,  3.198,  3.295,  3.392,  3.488,  3.585,  3.681,  3.778,  3.875,  3.971,  4.068,  4.164,  4.261,  4.357,  4.454,  4.551,  4.647,  4.744,  4.840,  4.937,  5.034,  5.130,  5.227,  5.323,  5.420,  5.517,  5.613,  5.710,  5.806,  5.903,  6.000,  6.096,  6.193,  6.289,  6.386,  6.483,  6.579,  6.676,  6.772,  6.869,  6.965,  7.062,  7.159,  7.255,  7.352,  7.448,  7.545,  7.642,  7.738,  7.835,  7.931
2015/10/02 00:00,  999.0,  999.0,    0.0,    0.0,    0.1,    0.0,    0.1,   -0.1,   -0.0,    0.2,  999.0,   -0.1,   -0.0,    0.0,    0.1,   -0.0,    0.1,   -0.0,    0.1,    0.0,    0.1,    0.0,    0.0,   -0.0,   -0.1,   -0.0,   -0.1,   -0.0,    0.1,    0.1,    0.0,    0.1,   -0.0,    0.0,    0.0,    0.2,    0.1,    0.0,    0.2,   -0.1,   -0.1,   -0.1,    0.0,    0.1,    0.0,   -0.1,   -0.0,   -0.0,   -0.1,   -0.1,   -0.0,   -0.1,   -0.1,    0.1,    0.2,   -0.0,    0.1,    0.1,   -0.0,    0.1,    0.1,   -0.1,    0.0,    0.2,    0.3,   -0.1,   -0.1,   -0.2,   -0.1,    0.1,   -0.0,  999.0,    0.2,    0.1,  999.0,  999.0,  999.0,  999.0,  999.0,   -0.5
2015/10/02 00:10,  999.0,  999.0,  999.0,    0.0,    0.0,    0.1,    0.0,   -0.0,   -0.1,   -0.1,    0.1,   -0.0,    0.0,    0.0,   -0.0,   -0.2,   -0.2,   -0.0,   -0.0,   -0.0,   -0.1,   -0.1,    0.0,   -0.0,   -0.0,   -0.0,    0.0,   -0.0,   -0.0,   -0.1,   -0.0,   -0.0,    0.0,   -0.0,   -0.0,   -0.0,    0.0,    0.1,    0.1,    0.1,    0.1,    0.1,    0.0,    0.0,    0.0,    0.1,    0.0,    0.0,    0.0,   -0.1,   -0.1,    0.0,    0.0,    0.1,    0.0,   -0.0,    0.0,   -0.1,   -0.0,   -0.2,   -0.1,   -0.1,   -0.0,  999.0,    0.0,   -0.0,   -0.0,    0.0,   -0.1,   -0.2,   -0.1,   -0.1,   -0.2,   -0.2,   -0.1,  999.0,  999.0,  999.0,  999.0,  999.0
2015/10/02 00:20,  999.0,  999.0,    0.1,    0.0,   -0.0,   -0.1,   -0.1,    0.1,   -0.0,   -0.0,   -0.1,   -0.1,   -0.1,    0.0,   -0.0,   -0.1,   -0.1,   -0.1,    0.0,   -0.1,   -0.1,   -0.0,   -0.0,   -0.0,    0.1,    0.0,   -0.0,   -0.0,    0.1,    0.0,    0.0,    0.1,    0.1,    0.0,    0.1,    0.1,    0.2,    0.0,   -0.0,    0.0,    0.0,    0.0,    0.0,    0.0,   -0.1,   -0.1,    0.0,    0.0,    0.0,    0.0,    0.1,    0.1,   -0.0,   -0.0,   -0.0,    0.0,   -0.0,   -0.0,   -0.0,   -0.0,    0.1,    0.1,   -0.0,   -0.1,   -0.0,   -0.0,   -0.0,    0.0,   -0.1,   -0.2,    0.1,   -0.1,   -0.1,   -0.1,    0.2,  999.0,    0.2,  999.0,  999.0,  999.0
2015/10/02 00:30,  999.0,  999.0,   -0.1,    0.0,    0.0,   -0.1,   -0.1,   -0.0,   -0.0,   -0.1,   -0.0,   -0.0,    0.1,   -0.0,   -0.0,   -0.1,   -0.1,    0.0,   -0.0,    0.0,    0.0,    0.0,    0.1,    0.0,   -0.0,   -0.0,   -0.0,   -0.0,    0.0,    0.0,   -0.0,   -0.1,    0.0,    0.1,    0.0,    0.1,    0.1,   -0.1,   -0.0,   -0.0,   -0.1,   -0.0,    0.0,   -0.1,   -0.0,   -0.0,    0.1,    0.0,    0.0,    0.1,    0.0,    0.0,    0.0,    0.0,   -0.2,    0.1,    0.0,   -0.0,    0.0,    0.1,    0.0,   -0.2,    0.0,    0.1,    0.1,   -0.0,    0.1,   -0.0,    0.0,    0.1,   -0.0,    0.0,   -0.1,    0.0,    0.0,  999.0,  999.0,  999.0,  999.0,  999.0
2015/10/02 00:40,  999.0,  999.0,   -0.1,   -0.0,   -0.0,   -0.1,    0.0,    0.1,   -0.1,    0.0,  999.0,   -0.1,   -0.1,   -0.1,   -0.0,   -0.0,    0.0,    0.0,   -0.0,    0.0,    0.1,    0.0,    0.0,   -0.0,   -0.1,   -0.1,   -0.0,    0.0,   -0.1,   -0.0,   -0.0,    0.1,   -0.1,    0.0,   -0.0,    0.1,    0.1,    0.1,    0.1,    0.1,    0.1,   -0.0,    0.0,    0.0,    0.0,    0.0,    0.1,    0.2,   -0.0,    0.1,    0.0,   -0.0,   -0.0,    0.0,    0.0,   -0.1,   -0.0,   -0.0,   -0.0,    0.0,    0.0,   -0.0,   -0.0,    0.0,    0.1,   -0.1,   -0.0,    0.0,    0.0,    0.0,   -0.1,   -0.0,    0.1,    0.1,   -0.2,  999.0,  999.0,  999.0,  999.0,  999.0
2015/10/02 00:50,  999.0,  999.0,   -0.1,   -0.0,   -0.0,   -0.0,    0.0,    0.1,    0.0,   -0.0,    0.0,   -0.0,    0.2,    0.2,    0.2,    0.0,    0.0,    0.0,   -0.0,    0.0,   -0.1,    0.0,    0.1,   -0.1,   -0.0,   -0.1,    0.1,   -0.1,    0.0,   -0.0,    0.0,    0.1,    0.1,    0.0,    0.1,    0.2,    0.2,    0.1,    0.0,    0.0,    0.0,    0.1,    0.1,   -0.1,   -0.0,   -0.0,   -0.0,    0.0,   -0.0,   -0.1,   -0.0,   -0.1,    0.1,   -0.0,   -0.1,   -0.0,   -0.0,    0.0,    0.0,    0.0,   -0.1,   -0.1,    0.1,    0.0,   -0.0,   -0.1,   -0.1,   -0.0,   -0.0,   -0.2,   -0.1,    0.2,    0.0,    0.0,    0.1,    0.0,  999.0,  999.0,  999.0,  999.0
2015/10/02 01:00,  999.0,  999.0,    0.0,   -0.0,   -0.0,   -0.1,   -0.0,    0.1,   -0.1,   -0.0,   -0.0,   -0.1,    0.0,    0.1,   -0.1,   -0.1,   -0.0,   -0.1,   -0.1,   -0.0,   -0.0,   -0.0,   -0.1,   -0.1,   -0.1,   -0.0,    0.1,   -0.0,   -0.1,    0.0,    0.1,    0.1,    0.0,    0.1,   -0.0,    0.0,    0.2,    0.0,    0.0,    0.0,    0.0,    0.0,    0.0,   -0.1,    0.0,    0.1,   -0.0,   -0.0,   -0.1,   -0.0,    0.0,   -0.0,   -0.1,    0.1,    0.0,   -0.0,    0.1,   -0.0,   -0.0,    0.0,   -0.0,   -0.1,   -0.1,   -0.0,   -0.1,    0.0,    0.1,   -0.1,    0.0,    0.2,    0.0,    0.1,   -0.2,    0.1,   -0.2,    0.0,  999.0,  999.0,  999.0,  999.0
2015/10/02 01:10,  999.0,  999.0,   -0.2,   -0.0,   -0.0,   -0.1,   -0.0,   -0.0,   -0.1,   -0.1,   -0.1,   -0.0,   -0.0,    0.0,    0.0,    0.0,    0.1,    0.1,    0.0,    0.1,   -0.0,   -0.1,   -0.1,    0.1,    0.1,   -0.0,   -0.0,    0.0,   -0.1,    0.1,    0.1,   -0.0,    0.0,   -0.0,    0.0,    0.1,   -0.1,    0.1,    0.1,    0.1,   -0.1,    0.0,    0.1,   -0.1,   -0.1,    0.0,   -0.0,    0.0,   -0.0,   -0.0,   -0.0,    0.2,    0.0,    0.0,   -0.0,   -0.0,   -0.0,   -0.0,    0.0,    0.0,    0.1,   -0.0,   -0.0,    0.0,   -0.0,   -0.0,   -0.1,   -0.0,    0.2,    0.1,    0.0,   -0.0,   -0.2,    0.1,    0.1,  999.0,  999.0,  999.0,  999.0,  999.0
2015/10/02 01:20,  999.0,  999.0,   -0.0,   -0.0,    0.0,    0.0,    0.0,   -0.0,    0.0,    0.1,    0.0,    0.0,    0.0,    0.0,    0.1,   -0.1,   -0.1,   -0.0,   -0.0,   -0.0,    0.0,   -0.1,   -0.0,    0.0,   -0.0,   -0.0,    0.0,    0.0,   -0.0,   -0.1,   -0.0,   -0.1,   -0.0,   -0.0,    0.0,    0.1,    0.1,    0.1,   -0.0,    0.0,    0.0,    0.0,   -0.0,    0.0,   -0.0,   -0.0,   -0.0,   -0.0,   -0.1,    0.0,    0.1,    0.0,    0.0,    0.1,    0.0,    0.0,    0.0,    0.0,    0.0,   -0.0,    0.0,   -0.0,    0.0,   -0.2,    0.0,   -0.0,   -0.1,    0.1,    0.1,    0.0,   -0.2,   -0.1,   -0.1,    0.2,   -0.1,    0.2,  999.0,  999.0,  999.0,  999.0
2015/10/02 01:30,  999.0,  999.0,    0.0,   -1.1,   -1.5,    0.1,   -0.0,   -1.2,   -2.6,  -15.5,  -14.8,  -22.5,  -10.5,   -5.1,    0.1,    4.9,    7.7,   -5.0,   -3.1,   -0.2,  -11.4,  -10.7,  -16.7,   -9.9,  -13.0,  -13.2,  -17.1,  -13.0,  -11.9,  -11.5,  -10.6,  -10.1,  -10.0,  -10.1,   -6.3,   -9.9,   -8.5,   -7.6,    0.3,    2.9,   -8.9,   -7.4,    3.8,   -0.0,   12.9,    4.8,    0.0,   11.0,   11.0,   11.8,    5.1,    3.4,   -0.1,   -0.0,   -0.1,   -0.1,   -0.1,    0.0,    0.1,    0.1,    0.1,    0.1,    0.0,    0.1,    0.0,    0.1,    0.0,   -0.1,    0.1,   -0.2,    0.4,   -0.3,   -0.0,    0.2,   -0.1,  999.0,  999.0,  999.0,  999.0,  999.0
2015/10/02 01:40,  999.0,  999.0,  999.0,   -9.4,  -12.3,  -12.5,  -12.4,   -9.7,  -13.1,  999.0,  -12.0,  -19.3,  -21.9,   -0.1,   -7.2,  999.0,  999.0,   -1.0,   -0.9,  999.0,  999.0,  999.0,  999.0,  999.0,  999.0,  999.0,  999.0,  999.0,  999.0,  999.0,  999.0,  999.0,  999.0,  999.0,  999.0,  999.0,  999.0,  999.0,  999.0,  999.0,  999.0,  999.0,  999.0,  999.0,  999.0,  999.0,  999.0,  999.0,  999.0,  999.0,  999.0,  999.0,  999.0,  999.0,  999.0,  999.0,  999.0,  999.0,  999.0,  999.0,  999.0,  999.0,  999.0,  999.0,  999.0,  999.0,  999.0,  999.0,  999.0,  999.0,  999.0,  999.0,  999.0,  999.0,  999.0,  999.0,  999.0,  999.0,  999.0,  999.0
2015/10/02 01:50,  999.0,  999.0,  -12.4,  -13.7,  999.0,  -14.0,  999.0,  999.0,  999.0,  -45.2,  -43.9,  -42.7,  -41.8,  -42.2,  -39.8,  -38.8,  -37.6,  -37.0,  -35.9,  -34.6,  -34.0,  -32.3,  -30.3,  -28.3,  -25.4,  -24.9,  -25.0,  -23.7,  -23.8,  -21.7,  -21.0,  -20.0,  -19.1,  -20.0,  999.0,  999.0,  999.0,  999.0,  999.0,   38.4,   38.5,   39.4,   38.8,   38.5,   39.3,  999.0,  999.0,    8.6,    8.0,    7.9,    2.7,    0.1,   -0.0,   -0.0,    0.0,    0.1,   -0.1,   -0.1,    0.0,    0.1,   -0.0,    0.0,    0.1,    0.0,    0.0,    0.0,   -0.1,    0.1,    0.0,   -0.0,  999.0,   -0.2,   -0.1,    0.3,  999.0,  999.0,  999.0,  999.0,  999.0,  999.0
2015/10/02 02:00,  999.0,  999.0,  -22.3,  999.0,  999.0,  999.0,  999.0,  999.0,  -46.0,  -46.7,  -45.3,  -43.9,  -43.5,  -42.7,  -42.4,  -40.8,  -38.4,  -36.7,  -33.1,  -33.5,  -33.0,  -32.0,  -29.6,  -28.5,  -26.2,  -24.6,  -24.0,  -23.3,  -21.0,  -22.0,  -21.4,  -22.2,  -21.5,  -20.1,  -18.2,  -16.4,  -16.6,  -17.2,  -17.0,   -2.7,    5.4,   12.9,   13.1,    8.6,   23.2,  999.0,  999.0,   15.0,   12.0,   16.9,  999.0,  999.0,  999.0,    0.1,    0.0,   -0.1,   -0.0,   -0.0,    0.0,   -0.1,    0.1,   -0.1,    0.1,    0.0,   -0.0,   -0.0,   -0.0,   -0.0,    0.1,    0.1,   -0.1,    0.1,   -0.1,   -0.2,    0.2,  999.0,  999.0,  999.0,  999.0,  999.0
2015/10/02 02:10,  999.0,  999.0,  999.0,  -24.2,  -24.5,  999.0,  -47.2,  -32.0,  -46.1,  -28.9,  -30.0,  -34.7,  -31.7,  -30.9,  -27.9,  -27.2,  -31.9,  -35.6,  -34.1,  -28.5,  -31.7,  -30.0,  -27.7,  -25.4,  -22.0,  -20.9,  -15.9,  -19.6,  -19.9,  -20.2,  -20.6,  -20.7,  -20.1,  -19.2,  -18.8,  -19.1,  -18.9,  -19.0,  -18.2,  -17.8,  -16.5,  -16.1,  -11.6,  -13.0,  999.0,  999.0,  999.0,  999.0,   23.7,   28.5,   27.5,   23.1,  999.0,  999.0,  999.0,    0.0,   -0.1,    0.0,   -0.0,    0.0,    0.1,    0.1,    0.1,    0.1,    0.0,    0.0,    0.0,    0.0,    0.0,   -0.2,    0.3,    0.2,    0.1,  999.0,    0.0,  999.0,  999.0,  999.0,  999.0,  999.0
2015/10/02 02:20,  999.0,  999.0,  -13.2,  -13.0,  -31.0,  -35.6,  -44.6,  999.0,  -44.3,  -42.2,  -42.0,  -42.6,  -42.9,  -41.8,  -39.6,  -37.3,  -35.2,  -33.7,  -32.4,  -30.1,  -29.1,  -27.2,  -24.9,  -23.1,  -21.7,  -20.5,  -19.0,  -18.4,  -18.3,  -17.8,  -17.7,  -18.1,  -18.3,  -17.2,  -17.9,  -18.2,  -17.5,  -17.5,  -17.0,  -16.1,  -15.5,  -14.7,  999.0,  999.0,  999.0,  999.0,   37.9,  999.0,  999.0,   29.7,   29.4,   30.1,   33.5,   28.8,   23.8,   18.7,   16.4,   14.9,   14.0,   13.8,    9.3,    0.1,    6.6,   12.9,    7.4,    8.6,    8.6,   13.2,   14.0,  999.0,  999.0,  999.0,  999.0,  999.0,  999.0,  999.0,   26.5,   27.9,  999.0,  999.0
2015/10/02 02:30,  999.0,  999.0,  999.0,  999.0,  -34.2,  -31.5,  999.0,  999.0,  999.0,  -43.5,  -42.4,  -42.0,  -41.6,  -39.8,  -37.1,  -34.4,  -32.7,  -30.3,  -28.4,  -25.3,  -23.9,  -22.3,  -21.5,  -21.6,  -20.6,  -20.9,  -20.9,  -21.0,  -19.6,  -20.1,  -20.1,  -19.7,  -17.9,  -19.0,  -19.1,  -19.6,  -19.2,  -18.0,  -16.7,  -16.0,   -2.1,   25.4,   18.6,   30.0,   28.2,   38.5,  999.0,  999.0,    9.5,  999.0,   17.2,   10.6,    6.6,    5.4,    6.6,    5.3,    5.5,    5.3,    5.2,    5.1,    5.1,    3.9,    5.4,   -0.1,   10.4,    0.0,   -0.1,   -0.1,   14.1,    9.5,  999.0,  999.0,   14.7,   13.6,  999.0,  999.0,   27.7,   28.4,   29.8,   27.7
2015/10/02 02:40,  999.0,  999.0,  -22.8,  -21.9,  -21.4,  999.0,  999.0,  999.0,  999.0,  999.0,  999.0,  999.0,  -41.3,  -38.9,  -37.5,  -35.9,  -32.7,  -31.3,  -29.1,  -25.9,  -24.6,  -22.5,  -21.9,  -20.8,  -21.9,  -21.3,  -19.0,  -18.1,  -17.0,  -17.8,  -17.3,  -17.5,  -15.2,  999.0,  999.0,  999.0,  999.0,   36.4,   37.8,   36.9,   37.1,   37.8,   38.6,   38.8,   35.9,  999.0,  999.0,  999.0,  999.0,    4.7,    4.1,    3.9,    0.2,    0.2,    0.4,    0.1,    0.1,    0.2,   -0.0,   -0.1,    0.0,    0.0,    0.1,   -0.0,   -0.0,    0.1,    0.1,    0.0,    0.1,  999.0,  999.0,    0.1,  999.0,   -0.2,    0.0,  999.0,  999.0,  999.0,  999.0,  999.0
2015/10/02 02:50,  999.0,  999.0,  999.0,   -1.7,   -1.7,  999.0,  -45.2,  -45.4,  -44.8,  -45.2,  -44.6,  999.0,  -28.8,  -15.3,  -12.8,  -18.5,  -34.3,  -32.9,  999.0,  -29.3,  -28.7,  -27.9,  -25.4,  -23.5,  -22.0,  -21.4,  -20.3,  -19.0,  -19.0,  -18.4,  -19.2,  -19.1,  -18.7,  -17.4,  -17.0,  -16.9,    9.9,   10.3,   37.4,   10.1,   38.6,   39.3,   39.1,   39.9,   40.9,  999.0,  999.0,  999.0,  999.0,  999.0,   -0.2,    0.1,   -0.0,   -0.1,    0.1,   -0.1,   -0.0,    0.1,   -0.0,    0.0,    0.0,    0.0,    0.1,  999.0,   -0.0,   -0.0,   -0.1,    0.0,    0.0,   -0.0,  999.0,   -0.3,  999.0,  999.0,  999.0,  999.0,  999.0,  999.0,  999.0,  999.0
2015/10/02 03:00,  999.0,  999.0,  999.0,  999.0,    7.8,  999.0,  999.0,  -16.8,  -44.0,  -44.5,  -30.2,   -6.7,   12.4,   12.9,   14.6,  999.0,  999.0,  -32.8,  -32.5,  -30.9,  -29.7,  -28.6,  -27.1,  -24.6,  -22.9,  -22.0,  -20.9,  -20.6,  -20.8,  -20.4,  -19.8,  -19.9,  -19.8,  -20.0,  -19.9,  -20.6,  -20.3,  -20.2,  -20.1,   21.0,    8.9,    9.7,   18.9,   39.6,   40.5,   39.3,   38.3,   35.5,   34.0,   33.7,   28.7,   34.4,   23.1,   22.6,   22.2,   19.6,   19.9,   18.1,  999.0,   22.2,   10.5,    6.7,    0.4,   -0.0,  999.0,   -0.1,   -0.2,    0.0,  999.0,  999.0,    0.3,  999.0,  999.0,    0.0,   -0.0,  999.0,  999.0,  999.0,  999.0,  999.0
2015/10/02 03:10,  999.0,  999.0,    4.4,    5.7,    7.9,  999.0,  999.0,  999.0,   11.2,   12.0,  -23.0,  -40.7,  -41.7,  999.0,   -4.7,  -29.5,  -35.3,  -34.4,  -19.6,  -30.4,  -28.5,  -28.3,  -27.6,  -28.0,  -26.9,  -25.9,  -25.2,  -23.5,  -22.7,  -22.9,  -22.4,  -22.7,  -21.4,  999.0,    4.9,    6.1,  999.0,  999.0,   34.4,   34.3,   34.3,   34.8,   35.8,   36.8,   37.2,   36.3,   36.2,   31.7,  999.0,  999.0,  999.0,  999.0,    8.3,    8.3,    7.8,   13.8,   16.3,    5.4,    3.3,    7.7,    9.3,    6.8,    2.1,  999.0,  999.0,  999.0,  999.0,  999.0,  999.0,  999.0,  999.0,  999.0,    0.1,  999.0,  999.0,  999.0,  999.0,  999.0,  999.0,  999.0
2015/10/02 03:20,  999.0,    3.0,    4.2,    7.5,  999.0,  999.0,  999.0,  999.0,  -43.8,  -42.8,  -42.9,  -43.2,  -42.3,  -42.0,  -41.1,  -39.6,  -37.8,  -34.9,  -32.7,  -30.7,  -28.7,  -26.8,  -26.3,  -26.0,  -25.9,  -25.7,  -25.6,  -25.3,  -24.8,  -23.5,  999.0,  999.0,  999.0,    5.1,   13.6,   31.6,   32.2,   32.5,   32.8,   32.1,   32.4,   33.8,   32.3,   32.8,   34.1,   35.5,   29.8,   30.0,   30.2,  999.0,  999.0,  999.0,  999.0,  999.0,    0.1,    0.0,   -0.3,   -0.2,   -0.0,   -0.0,    0.0,   -0.1,    0.0,   -0.1,    0.0,    0.0,   -0.3,  999.0,  999.0,  999.0,  999.0,  999.0,    0.2,  999.0,  999.0,  999.0,  999.0,  999.0,  999.0,  999.0
2015/10/02 03:30,  999.0,    3.1,    3.8,    5.2,    7.4,  999.0,  999.0,  999.0,  -44.2,  -43.4,  -43.8,  -42.8,  -41.6,  -40.5,  -39.2,  -37.3,  -35.4,  -34.3,  -32.8,  -30.8,  -29.0,  -28.0,  -27.2,  -27.2,  -26.7,  -25.8,  -25.7,  -24.5,  -24.9,  -25.3,  -23.1,  -24.8,  -12.7,  -25.2,  -13.7,  -25.0,  -11.3,  999.0,  999.0,  999.0,   30.0,   31.8,  999.0,   29.7,   30.7,   30.7,   30.6,   30.1,   30.6,   31.5,   32.9,  999.0,  999.0,  999.0,  999.0,  999.0,  999.0,   -0.2,   -0.0,   -0.1,   -0.0,    0.0,    0.1,   -0.3,  999.0,   -0.3,   -0.2,  999.0,  999.0,  999.0,  999.0,   -0.1,    0.0,  999.0,  999.0,  999.0,  999.0,  999.0,  999.0,  999.0
2015/10/02 03:40,  999.0,    2.5,    4.0,    6.5,    7.2,    8.0,    9.1,    9.8,   10.3,  -11.5,   -3.3,  999.0,  999.0,  -41.3,  -39.2,  -37.1,   -1.4,   -7.0,  -15.8,  -33.6,  -30.9,  -29.0,  -27.4,  -26.7,  -26.4,  -25.3,  -25.9,  999.0,  999.0,   30.5,   30.3,   31.7,   31.4,   32.5,   33.1,   33.8,   33.8,   33.1,   31.8,   31.4,   30.3,   31.0,   29.6,   29.2,   30.6,   30.8,  999.0,  999.0,  999.0,  999.0,  999.0,  999.0,   13.3,   -0.1,    0.2,   -0.0,  999.0,    0.0,    0.2,    0.1,    0.2,   -0.1,    0.0,    0.3,   -0.2,   -0.4,   -0.1,  999.0,  999.0,   -0.0,    0.2,  999.0,    0.2,  999.0,    0.0,  999.0,  999.0,  999.0,  999.0,  999.0
2015/10/02 03:50,  999.0,    1.7,    5.6,    8.0,    8.9,    9.6,   10.3,   11.2,   12.0,   13.1,   13.7,    8.6,    4.4,    2.3,   15.9,   19.2,   20.4,   23.9,   22.2,   23.6,   25.0,    8.1,    9.1,   28.3,   29.6,   28.1,   29.9,   29.2,   29.3,   29.2,   23.5,   30.7,   31.2,   31.2,   32.7,   32.9,   32.9,   34.4,   33.6,   34.0,   33.4,   32.8,  999.0,  999.0,  999.0,  999.0,  999.0,  999.0,  999.0,  999.0,  999.0,  999.0,    0.1,    0.3,   -0.1,    0.4,   -0.1,    0.2,    0.2,    0.1,    0.1,    0.0,    0.0,   -0.5,   -0.0,   -0.6,  999.0,    0.1,    0.1,  999.0,  999.0,    0.1,    0.2,   -0.1,  999.0,  999.0,  999.0,  999.0,  999.0,  999.0
2015/10/02 04:00,  999.0,  999.0,    6.8,    8.0,    9.3,   10.5,   11.3,   11.0,   11.8,   13.7,   14.5,   15.8,   16.5,   17.4,   18.1,   19.8,   21.6,   23.9,   24.9,   23.9,   23.7,   23.8,   24.1,   24.6,   25.2,   26.5,   25.2,   25.7,   27.2,   28.6,   29.2,   30.0,   31.4,   31.3,   32.9,   33.1,   33.7,   33.4,   33.7,   35.1,  999.0,  999.0,  999.0,  999.0,  999.0,    0.0,    0.2,   -0.1,   -0.1,    0.3,    0.3,   -0.2,    0.2,   -0.1,   -0.0,   -0.3,    0.1,   -0.1,   -0.0,    0.0,   -0.1,   -0.2,  999.0,    0.0,   -0.0,   -0.1,  999.0,   -0.1,    0.1,  999.0,  999.0,    0.0,    0.1,   -0.0,   -0.1,   -0.1,  999.0,  999.0,  999.0,  999.0
2015/10/02 04:10,  999.0,    6.0,    7.7,    7.6,    8.8,    9.8,   10.8,   11.6,   11.7,   13.9,   16.7,   14.6,   17.0,   18.3,   20.8,   21.2,   20.3,   20.8,   20.0,  999.0,   24.7,   23.1,   24.2,   24.6,   27.3,   27.4,   29.1,   30.5,   29.4,   29.0,   29.6,   30.7,   31.5,   31.8,   31.0,   32.3,   32.4,   32.1,   32.8,   34.8,  999.0,  999.0,  999.0,  999.0,  999.0,  999.0,    0.3,   -0.0,   -0.1,   -0.0,    0.2,    0.1,    0.0,    0.2,   -0.0,    0.2,    0.2,    0.2,    0.1,   -0.1,   -0.1,    0.1,    0.2,    0.0,    0.2,    0.0,   -0.1,   -0.2,   -0.1,    0.6,   -0.1,   -0.0,    0.0,   -0.0,  999.0,  999.0,  999.0,  999.0,  999.0,  999.0
2015/10/02 04:20,  999.0,  999.0,  999.0,    7.4,    9.8,  999.0,   12.5,   11.7,   14.6,    3.1,   -5.6,   -4.3,    1.5,   -8.1,    3.4,   18.4,   10.0,   18.6,   10.9,   19.3,   26.5,   27.4,   27.4,   30.0,   29.2,   28.9,   29.1,   27.9,   28.3,   27.4,   28.1,   30.1,   29.9,   30.6,   31.2,   30.9,   31.7,   31.8,   31.5,   32.1,   32.6,   32.0,   31.9,   30.4,  999.0,  999.0,  999.0,    9.4,  999.0,    0.2,    0.2,    0.1,    0.1,    0.2,    0.2,    0.0,    0.0,    0.0,    0.1,    0.0,    0.1,   -0.0,    0.0,    0.0,   -0.0,    0.1,    0.1,    0.2,    0.3,    0.8,  999.0,   -0.0,  999.0,    0.3,  999.0,  999.0,  999.0,  999.0,  999.0,  999.0
2015/10/02 04:30,  999.0,  999.0,  999.0,  999.0,    9.9,   14.5,   19.3,   21.2,   20.8,   18.2,   19.1,   18.6,   19.9,   20.3,   20.7,   21.5,   23.1,   24.3,   25.2,   27.2,   27.2,   28.8,   30.3,   32.1,   32.4,   31.1,   29.6,   28.7,   29.0,   30.2,   31.6,   33.5,   33.2,   32.9,   32.9,   32.3,   32.0,   32.1,   32.3,   32.1,   31.6,   30.8,   30.3,   30.1,   29.7,   28.9,   28.3,   27.8,   25.9,   12.0,   10.5,  999.0,  999.0,  999.0,    4.5,    1.3,    1.0,    0.7,    0.6,    0.8,    1.1,    0.2,    0.0,   -0.0,   12.6,   14.1,   14.7,   10.1,   15.6,   24.0,   24.7,   25.6,   19.5,   25.6,   27.0,   28.3,   28.7,   28.8,   28.1,   27.1
2015/10/02 04:40,  999.0,    2.4,    4.3,    5.9,    8.7,   13.0,    7.4,    7.7,    8.9,    8.7,    7.3,    6.5,    5.3,    4.7,   11.4,   13.1,   10.0,   19.0,   19.9,   22.3,   24.5,   24.7,   28.6,   30.6,   32.6,   34.0,   32.7,   31.9,   31.6,   32.2,   33.7,   34.8,   35.2,   35.1,   34.0,   34.1,   34.2,   33.7,   34.7,   35.2,   35.0,   34.5,   35.1,   34.2,   32.8,   31.8,   31.0,   28.5,   25.6,   23.1,   21.2,   20.9,   20.6,   20.7,   21.1,   21.3,   21.6,   21.3,   22.1,   22.0,   22.6,   22.7,   23.1,   23.1,   23.4,   24.0,   24.7,   25.2,   25.7,   25.6,   26.0,   27.2,   27.9,   29.4,   30.0,   31.0,   31.5,   31.3,   30.7,   31.2
2015/10/02 04:50,  999.0,    1.6,    3.2,    0.4,    0.3,    0.6,    1.0,    2.1,    1.6,    3.4,    7.6,    5.9,    7.2,    8.6,    9.3,  999.0,   20.7,   18.2,   24.4,   23.4,   27.4,   29.5,   27.1,   27.9,   33.9,   35.6,   33.4,   32.6,   31.9,   32.4,   33.3,   33.7,   33.0,   31.4,   30.4,   30.5,   30.4,   30.4,   30.6,   29.8,   29.9,   29.9,   29.9,   30.4,   31.7,   32.1,   28.9,   27.1,   27.1,   27.6,   26.0,   23.8,   23.5,   26.8,   26.9,   27.1,   27.6,   25.8,   26.5,   25.1,   24.2,   24.0,   23.4,   23.3,   22.4,   21.9,   22.2,   22.4,   23.4,   24.7,   26.1,   26.9,   28.4,   29.3,   29.3,   29.0,   28.9,   27.3,   26.4,  999.0
2015/10/02 05:00,  999.0,  999.0,   -3.3,   -2.0,   -1.7,   -1.0,   -1.3,    1.0,    2.1,    4.2,    6.8,   10.1,    9.4,    7.5,    8.1,   20.4,  999.0,  999.0,   21.9,   20.6,   19.1,   27.9,   26.5,   30.7,  999.0,   29.7,   31.6,   27.9,   31.0,   24.3,   25.9,   27.6,   30.8,  999.0,   18.0,  999.0,  999.0,    8.6,   12.6,  999.0,   13.1,   15.3,   10.6,    0.1,   -0.1,  999.0,    0.1,  999.0,  999.0,  999.0,  999.0,  999.0,    0.6,    0.5,   -0.5,    0.0,   17.0,    8.5,   18.9,   21.5,   26.3,   26.1,   25.8,   25.5,   24.4,   24.9,   24.4,   24.2,   25.2,   25.9,   26.2,   27.2,   27.4,   27.9,   26.5,   26.0,   22.9,   22.6,   22.1,   21.8
2015/10/02 05:10,  999.0,  999.0,   -2.5,   -3.4,   -1.5,   -1.7,   -4.0,   -1.6,    1.8,   10.0,    3.1,    5.8,  999.0,    1.7,  999.0,  999.0,  999.0,  999.0,    9.9,   22.4,   27.5,   27.7,  999.0,   27.8,   31.5,   32.2,   38.1,   32.8,   33.2,   37.1,   33.8,   34.3,   30.0,  999.0,  999.0,  999.0,    5.9,  999.0,  999.0,  999.0,    0.1,    0.3,    0.1,    0.1,   -0.2,   -0.2,    0.0,    0.2,   -0.0,   -0.4,    0.1,    0.0,    0.1,    0.0,    0.0,    0.2,    0.0,   -0.1,   -0.0,    0.0,    0.0,    0.1,    0.6,  999.0,  999.0,  999.0,   20.9,   22.3,   24.6,   25.1,   25.0,   25.6,   25.4,   26.1,   25.9,   24.2,   25.9,   25.6,   25.2,   24.5
2015/10/02 05:20,  999.0,   -2.0,    1.4,    2.9,   -0.3,   -0.4,   -0.5,  999.0,  999.0,   14.1,   13.3,  999.0,  999.0,   17.0,  999.0,   31.7,   20.0,   24.0,   17.3,  999.0,   24.6,   29.7,   33.7,   32.7,   35.7,   36.9,   36.2,   37.8,   37.5,   38.5,   36.8,   36.9,   35.1,   35.2,   34.4,  999.0,  999.0,  999.0,  999.0,    0.4,    0.1,    0.1,    0.3,    0.2,   -0.0,   -0.1,   -0.0,   -0.0,    0.0,    0.1,    0.2,    0.3,    0.0,    0.0,   -0.1,    0.0,   -0.0,   -0.1,    0.1,    0.0,   -0.1,    0.0,    0.3,    0.1,  999.0,   10.3,  999.0,   11.2,  999.0,   25.3,  999.0,  999.0,  999.0,   25.5,   26.2,   25.8,   25.7,   26.9,   24.4,   23.2
2015/10/02 05:30,  999.0,   -1.0,    0.1,    0.8,   -0.1,    0.1,   -0.0,    1.3,   -0.9,    8.0,   14.8,   13.1,   14.1,  999.0,   16.3,   24.5,   24.0,   23.3,   21.9,  999.0,   24.7,   25.8,   23.1,   25.7,   21.2,   31.5,   26.5,   20.6,   24.2,   24.4,   29.6,   30.4,   31.9,   31.0,   31.3,   27.6,   28.9,   25.3,   27.5,   13.1,    8.9,    1.2,    1.7,    0.9,    0.1,    0.2,   -0.0,   -0.0,   -0.1,   -0.1,   -0.1,    0.0,    0.2,    0.2,    0.0,    0.1,    0.0,    0.1,    0.1,   -0.1,   -0.0,    0.0,   -0.0,   -0.0,    0.0,   -0.1,   -0.0,    0.0,    0.3,  999.0,  999.0,  999.0,  999.0,  999.0,  999.0,  999.0,  999.0,  999.0,  999.0,  999.0
2015/10/02 05:40,  999.0,   -1.1,    0.4,    0.6,   -0.6,   -0.1,    0.4,    0.1,    0.1,    3.0,    4.3,    2.8,    2.3,    0.0,    1.3,    1.6,    2.8,    2.7,   -0.0,    0.3,    4.3,   12.0,    7.2,   16.7,    8.4,   14.9,   17.5,   18.4,   20.5,   21.4,   27.7,   28.8,   28.2,   28.3,   28.8,   30.3,   29.4,   28.6,   27.3,   21.7,    9.0,    1.8,   -0.0,   -0.1,    0.1,    0.0,   -0.1,   -0.0,   -0.0,   -0.0,   -0.1,    0.0,    0.0,    0.0,   -0.1,    0.1,   -0.0,    0.0,    0.0,    0.0,   -0.1,   -0.1,   -0.1,   -0.1,    0.1,   -0.0,   -0.0,   -0.0,   -0.1,   -0.0,   -0.0,    0.1,    0.2,  999.0,  999.0,  999.0,  999.0,  999.0,  999.0,  999.0
2015/10/02 05:50,  999.0,  999.0,   -0.1,   -0.3,    0.0,   -0.3,   -0.8,   -0.1,   -0.1,   -0.0,    0.3,    0.1,    0.1,    1.1,    0.8,    0.5,    0.4,    0.3,    0.1,    5.9,    7.0,   10.2,    9.3,   16.5,  999.0,   23.1,   21.1,   22.2,   23.7,   23.1,   24.6,   26.6,   20.4,   21.5,  999.0,  999.0,   23.7,   13.7,   14.7,   13.0,    9.0,    1.8,    0.4,    0.1,   -0.0,   -0.1,   -0.1,    0.0,    0.1,   -0.1,   -0.0,   -0.1,    0.0,   -0.0,    0.0,   -0.1,    0.0,   -0.0,    0.1,   -0.0,   -0.0,   -0.0,    0.1,   -0.1,    0.0,    0.0,   -0.2,   -0.1,   -0.2,    0.0,    0.2,    0.2,  999.0,   -0.1,  999.0,  999.0,  999.0,  999.0,  999.0,  999.0
2015/10/02 06:00,  999.0,  999.0,    0.0,    0.7,    0.2,    0.1,    0.1,   -0.1,   -0.0,   -0.1,    0.7,    0.6,    0.7,    0.2,   -0.1,   -0.2,   -0.2,   -0.0,    3.2,    3.4,    3.4,    3.0,    4.1,    7.8,    7.8,    9.0,    8.8,   10.9,   13.2,    8.3,   13.8,   12.2,   10.9,   12.2,    6.1,    5.5,    3.0,    3.6,    0.5,    0.0,   -0.1,    0.1,    1.3,    0.2,    0.2,   -0.0,    0.1,    0.0,    0.1,    0.0,   -0.1,    0.1,    0.1,    0.1,    0.0,    0.0,    0.0,    0.1,   -0.0,   -0.0,   -0.0,    0.0,    0.0,    0.0,   -0.0,    0.0,    0.0,   -0.1,    0.0,  999.0,   -0.1,   -0.1,  999.0,   -0.0,  999.0,  999.0,  999.0,  999.0,  999.0,  999.0
2015/10/02 06:10,  999.0,  999.0,   -0.1,    0.0,    0.0,   -0.0,   -0.0,    0.1,    0.1,    0.2,    0.1,    1.1,    0.3,    0.0,   -0.0,   -0.0,    1.1,    0.3,   -0.1,    1.3,   -0.2,    2.0,    2.2,    3.8,    4.3,    4.2,    6.2,    1.2,    3.3,    4.3,    3.5,    3.1,    0.3,    0.1,    0.2,   -0.2,    0.1,    0.1,   -0.1,    0.2,    0.3,    0.6,    0.9,    0.5,    0.2,    1.0,    1.3,    0.1,   -0.1,    0.1,    0.0,    0.1,   -0.1,   -0.0,    0.1,    0.2,   -0.1,   -0.1,   -0.1,   -0.0,    0.1,    0.1,   -0.2,   -0.1,    0.1,   -0.1,   -0.0,    0.1,    0.0,   -0.1,   -0.2,    0.1,    0.4,    0.2,   -0.1,  999.0,  999.0,  999.0,  999.0,  999.0
2015/10/02 06:20,  999.0,  999.0,    0.4,    1.1,    1.9,    1.5,    1.0,    0.5,    0.3,    0.3,   -1.5,   -1.1,    0.0,    0.3,    0.1,    0.4,    0.3,    0.1,    0.2,    0.1,    1.4,    0.6,    5.1,    4.5,    3.4,    5.1,    4.9,    8.4,    8.5,   10.7,    9.6,   11.0,    8.7,    2.0,    1.5,    0.3,    0.3,    0.1,    0.0,    0.1,    0.1,    0.1,   -0.1,    2.0,    2.6,    0.9,    0.0,    0.2,    0.4,   -0.1,   -0.1,    0.0,    0.0,    0.0,    0.0,    0.0,    0.1,    0.0,    0.0,    0.0,    0.1,    0.0,    0.1,    0.2,   -0.0,    0.0,   -0.0,   -0.1,   -0.1,   -0.1,    0.1,   -0.0,  999.0,   -0.1,   -0.2,  999.0,  999.0,  999.0,  999.0,  999.0
2015/10/02 06:30,  999.0,  999.0,   -1.1,   -0.8,   -0.7,   -2.1,    0.1,    0.1,    1.9,    2.4,    1.2,    4.0,    1.1,    2.8,    1.3,    0.7,    0.0,   -0.1,    0.3,    0.4,    2.5,    0.6,    0.5,    0.5,    0.5,    1.0,    1.2,    5.0,    6.6,   12.2,   10.0,    9.2,    3.9,    0.3,    1.3,    0.4,   -0.2,   -0.1,   -0.0,   -0.1,   -0.0,    0.0,    0.1,   -0.0,    0.0,    0.0,    0.3,   -0.1,    0.1,    0.3,    0.1,   -0.0,   -0.1,    0.0,   -0.1,    0.0,   -0.1,   -0.0,    0.2,    0.0,    0.1,    0.1,    0.2,    0.1,   -0.0,   -0.0,   -0.1,   -0.0,   -0.2,   -0.3,    0.1,   -0.1,   -0.3,    0.2,  999.0,  999.0,  999.0,  999.0,  999.0,  999.0
2015/10/02 06:40,  999.0,    2.8,   -0.6,    4.6,    1.6,    0.1,   -0.5,    0.4,    2.4,    2.2,    4.0,    0.2,   -0.3,    0.9,    0.8,    2.5,    2.0,   -0.1,   -0.1,    0.9,    0.5,    0.6,    3.3,    2.3,    0.3,    0.3,    2.7,    4.9,    5.3,    8.2,    7.3,    6.0,    4.9,    2.4,    0.8,    0.0,    0.5,   -0.1,   -0.1,   -0.1,   -0.1,   -0.1,   -0.0,   -0.1,    0.1,   -0.2,   -0.2,   -0.0,    0.1,    0.3,   -0.1,   -0.3,    0.1,    0.0,   -0.0,   -0.1,    0.1,    0.1,    0.0,    0.0,    0.1,    0.0,    0.1,    0.0,    0.0,   -0.0,    0.0,    0.2,   -0.0,    0.0,   -0.2,    0.2,    0.0,   -0.1,    0.1,  999.0,  999.0,  999.0,  999.0,  999.0
2015/10/02 06:50,  999.0,  999.0,    0.6,   -1.0,   -1.2,    0.0,   -0.3,   -0.3,   -0.1,   -0.7,    1.9,    1.4,    0.9,    1.2,    1.9,   -0.7,   -0.1,   -0.1,    1.1,   -0.0,   -0.1,    0.0,    0.8,    0.7,    4.9,    6.2,    3.3,    0.4,    4.8,    6.1,    5.7,    7.5,   11.7,   15.9,   12.0,    5.4,    1.6,    0.2,    0.0,    0.0,   -0.1,   -0.0,   -0.0,    0.0,    0.0,   -0.0,    0.1,    0.1,   -0.1,    0.2,    0.5,    0.5,    0.1,    0.0,    0.1,    0.0,   -0.1,   -0.0,   -0.1,   -0.1,   -0.0,    0.0,   -0.0,   -0.0,    0.0,   -0.1,   -0.0,   -0.1,   -0.2,  999.0,   -0.0,   -0.2,   -0.2,    0.1,    0.0,  999.0,  999.0,  999.0,  999.0,  999.0
2015/10/02 07:00,  999.0,  999.0,   -0.3,   -0.1,   -0.4,   -0.7,   -0.7,   -1.4,    0.6,   -0.8,   -1.1,   -0.4,    0.8,   -0.1,   -0.1,   -0.1,    0.1,    0.0,    0.1,    0.0,    0.1,    0.2,    0.9,    0.3,   -0.3,    0.2,   -0.2,    0.8,    4.9,    3.4,    7.6,    9.0,    5.9,    8.1,    8.8,    4.4,    1.4,   -0.1,    0.2,    0.2,    0.0,    0.1,    0.2,    0.0,    0.1,   -0.1,   -0.2,   -0.2,   -0.1,    0.1,    0.1,    0.3,    0.5,    0.0,    0.0,    0.0,   -0.0,   -0.0,   -0.1,    0.2,    0.1,   -0.1,   -0.1,   -0.1,   -0.1,    0.2,    0.2,   -0.1,    0.0,    0.1,    0.2,   -0.1,    0.1,    0.2,    0.0,  999.0,  999.0,  999.0,  999.0,  999.0
2015/10/02 07:10,  999.0,   -1.2,   -1.9,   -1.8,    0.2,   -0.1,    0.2,   -0.7,   -0.5,   -1.5,    0.0,   -0.1,    0.5,    0.3,    1.0,    0.8,    0.4,    0.4,   -0.3,    0.1,    0.2,    0.5,   -0.2,   -0.6,   -0.2,    2.5,   -0.7,   -3.4,    2.0,    0.2,    3.4,    8.0,   -1.2,  999.0,   -2.3,    3.2,    2.1,   -0.0,    0.3,    0.0,    0.2,    0.2,   -0.0,    0.1,    0.1,   -0.0,   -0.0,    0.0,   -0.0,   -0.1,    0.1,    0.0,   -0.1,   -0.1,   -0.1,    0.0,    0.0,   -0.0,    0.1,   -0.0,   -0.0,   -0.0,    0.0,    0.1,    0.0,    0.1,   -0.1,    0.0,    0.2,    0.2,    0.7,   -0.1,   -0.1,   -0.2,    0.2,  999.0,  999.0,  999.0,  999.0,    0.2
2015/10/02 07:20,  999.0,   -1.1,   -2.3,   -1.3,    0.9,    1.2,    1.1,    0.6,    0.2,    0.2,    0.8,    0.3,    0.2,    0.5,    0.4,    2.7,    2.8,    0.2,    0.2,    0.1,   -0.1,   -0.4,   -0.6,    1.1,   -0.2,    3.9,    2.2,   -0.6,    2.1,   -2.4,   -6.9,   -6.5,   -6.3,   -4.4,   -0.3,   -0.7,   -0.0,   -0.0,   -0.0,   -0.1,    0.0,   -0.1,   -0.1,   -0.0,   -0.0,    0.1,    0.1,    0.1,    0.1,    0.2,   -0.0,   -0.2,   -0.1,    0.0,    0.0,   -0.2,    0.0,   -0.1,    0.2,    0.1,   -0.2,   -0.1,   -0.0,    0.1,    0.1,    0.1,    0.3,   -0.0,   -0.2,   -0.0,    0.0,  999.0,   -0.0,    0.1,   -0.1,   -0.1,  999.0,  999.0,  999.0,  999.0
2015/10/02 07:30,  999.0,   -0.1,  999.0,    0.4,   -2.9,   -0.6,   -2.1,    1.0,    0.2,   -0.4,    0.7,   -0.9,    2.1,    2.5,    0.9,    0.2,  999.0,    1.8,    6.9,   10.0,   10.7,   13.6,   12.0,   19.6,   17.2,   10.3,   18.2,   19.4,   20.4,   19.2,   29.5,   30.5,  999.0,  999.0,  999.0,   -0.3,   -0.1,   -0.1,   -0.1,    0.1,   -0.0,    0.0,    0.0,   -0.0,   -0.2,   -0.2,    0.0,    0.0,    0.0,   -0.1,   -0.1,   -0.5,   -0.1,   -0.2,   -0.1,   -0.1,   -0.2,   -0.1,   -0.4,   -0.2,   -0.1,   -0.1,   -0.0,   -0.0,   -0.1,    0.0,    0.0,   -0.1,   -0.2,   -0.3,    0.1,    0.1,    0.3,    0.0,   -0.9,  999.0,  999.0,  999.0,  999.0,  999.0
2015/10/02 07:40,  999.0,    0.1,   -0.4,   -2.1,   -0.5,   -0.5,   -0.2,   -0.1,   -2.2,   -0.8,    0.4,    0.4,   -1.3,    2.0,    0.3,    0.1,   -0.3,    1.7,    0.8,   -0.5,    2.2,    5.2,    1.3,    1.8,    7.5,    2.0,   -0.6,    0.1,    2.6,    1.1,   -3.7,    7.9,   18.8,    1.8,   -2.0,   -0.6,   -0.3,  999.0,   -0.3,    0.1,    0.1,   -0.0,   -0.1,   -0.0,    0.0,   -0.1,   -0.1,    0.1,   -0.0,   -0.0,   -0.2,   -0.0,    0.1,   -0.0,    0.0,    0.0,   -0.0,    0.1,   -0.1,   -0.0,   -0.0,   -0.0,    0.1,   -0.0,   -0.0,   -0.1,    0.1,   -0.1,    0.3,    0.3,    0.2,    0.1,    0.1,   -0.1,   -0.2,  999.0,  999.0,  999.0,  999.0,  999.0
2015/10/02 07:50,  999.0,    1.4,   -0.5,    0.8,   -0.2,    0.5,    0.2,    0.3,    0.5,    0.7,    0.5,   -0.7,   -1.1,   -0.5,   -0.9,    0.0,   -1.1,    0.8,    0.0,    0.1,    2.2,    3.0,    3.7,   11.6,    9.8,   14.1,   14.3,   12.4,   11.8,   13.2,   13.3,    4.9,   -0.4,   -0.4,    0.2,    0.0,   -0.1,   -0.0,   -0.0,    0.0,   -0.0,    0.0,   -0.1,    0.1,    0.1,   -0.0,   -0.2,    0.1,    0.1,    0.1,   -0.0,    0.0,   -0.1,   -0.0,    0.1,    0.0,    0.1,   -0.1,   -0.1,    0.0,    0.0,    0.1,    0.1,    0.0,    0.1,    0.2,    0.0,   -0.1,    0.1,    0.0,   -0.0,    0.2,   -0.2,    0.1,  999.0,  999.0,  999.0,  999.0,  999.0,  999.0
2015/10/02 08:00,  999.0,    0.1,    0.3,    1.0,    0.4,   -0.3,    0.0,    0.1,   -0.0,   -0.5,    0.6,   -0.1,    1.6,    0.2,    0.1,    2.3,    2.7,    6.5,    1.5,    0.8,    3.4,    3.1,    1.8,    8.4,   -0.5,    4.3,    2.3,    3.3,   -1.1,   -9.4,    0.0,   -0.3,    0.1,   -0.1,    0.0,   -0.4,   -0.1,   -0.1,    0.0,    0.0,   -0.0,    0.0,    0.2,    0.2,    0.0,    0.0,    0.1,    0.1,   -0.0,    0.1,    0.2,    0.3,   -0.2,   -0.0,   -0.1,    0.0,    0.0,   -0.1,   -0.2,   -0.0,    0.0,    0.1,   -0.0,    0.0,    0.1,    0.1,   -0.1,   -0.0,    0.2,   -0.1,   -0.1,    0.0,    0.3,   -0.0,   -0.0,  999.0,  999.0,  999.0,  999.0,  999.0
2015/10/02 08:10,  999.0,   -0.4,   -0.3,   -0.3,   -0.5,    0.8,    0.9,    0.5,   -0.4,    0.2,    0.2,   -1.1,    0.9,    0.2,  999.0,   -0.5,   -1.8,    0.3,    9.3,   -4.6,    6.8,    8.1,    1.5,    5.0,   11.7,    3.5,   21.8,    3.9,  999.0,   26.7,   16.6,  999.0,  999.0,  999.0,  999.0,  999.0,  999.0,  999.0,    0.1,   -0.1,    0.0,   -0.7,   -0.0,   -0.0,   -0.1,   -0.1,    0.1,   -0.0,   -0.1,    0.0,   -0.1,   -0.0,   -0.0,    0.1,    0.1,   -0.2,   -0.0,   -0.1,   -0.2,   -0.0,    0.0,    0.0,    0.0,   -0.0,   -0.1,    0.0,   -0.0,    0.1,   -0.2,   -0.0,   -0.1,   -0.2,    0.2,    0.0,    0.2,  999.0,  999.0,  999.0,  999.0,  999.0
2015/10/02 08:20,  999.0,  999.0,   -0.4,    0.5,   -0.2,    0.7,    0.6,    0.4,    0.1,   -0.2,   -0.1,    0.6,    0.2,    1.1,    0.0,    0.2,    0.1,    1.4,    2.0,    0.6,    0.2,   -2.4,  999.0,   11.1,   10.3,    7.7,   -6.5,   -1.8,   -5.5,    4.5,    5.5,    9.6,   -1.7,   -0.4,    0.4,    0.1,    0.0,   -0.0,   -0.1,   -0.3,   -0.1,   -0.1,    0.0,    0.1,    0.2,    0.1,    0.1,    0.1,    0.2,    0.0,    0.0,   -0.1,    0.3,    0.1,    0.1,   -0.0,    0.1,   -0.1,   -0.0,    0.0,    0.0,    0.0,   -0.0,    0.3,  999.0,    0.1,   -0.1,    0.0,   -0.0,    0.3,   -0.1,    0.0,    0.1,    0.0,   -0.0,  999.0,  999.0,  999.0,  999.0,  999.0
2015/10/02 08:30,  999.0,  999.0,   -0.0,    0.0,   -0.1,    0.7,   -0.0,   -0.2,   -0.3,   -0.8,    1.1,    2.6,    0.9,    1.4,  999.0,  999.0,   -0.0,   -0.3,    1.8,   -0.2,   -0.1,    4.3,   -0.2,    3.5,    6.7,   -2.5,   -1.8,    4.7,   -7.7,    0.0,   -0.5,   -0.0,    0.0,    0.0,    0.1,    0.2,   -0.1,   -0.2,    0.1,   -0.0,   -0.1,    0.1,   -0.0,   -0.1,    0.2,    0.0,   -0.1,   -0.0,   -0.0,    0.0,    0.0,   -0.0,    0.1,   -0.0,    0.1,   -0.1,   -0.1,   -0.3,    0.0,    0.1,   -0.0,    0.1,   -0.0,   -0.1,    0.0,   -0.0,    0.2,   -0.1,    0.2,   -0.1,    0.1,    0.0,    0.2,  999.0,    0.1,  999.0,  999.0,  999.0,  999.0,  999.0
2015/10/02 08:40,  999.0,  999.0,   -0.0,   -0.0,    0.2,   -0.0,    0.0,   -0.0,    0.0,    0.2,    0.0,    0.1,    0.1,    0.1,    0.0,   -0.1,   -0.1,   -0.2,    0.1,   -0.1,   -0.2,   -0.3,    1.7,    3.4,   -3.3,  -11.1,    1.3,   -6.5,   -4.9,   -8.9,   -0.2,   -0.0,    0.1,   -0.1,   -0.1,    0.0,   -0.0,   -0.0,   -0.0,    0.0,    0.0,    0.1,    0.2,    0.1,    0.0,    0.0,    0.0,    0.1,   -0.1,    0.2,   -0.2,    0.0,   -0.1,   -0.0,   -0.0,    0.1,   -0.1,    0.0,    0.1,   -0.0,    0.1,   -0.1,   -0.0,   -0.0,    0.3,    0.2,    0.1,    0.1,   -0.0,    0.2,   -0.1,   -0.1,   -0.1,    0.1,   -0.1,  999.0,  999.0,  999.0,  999.0,  999.0
2015/10/02 08:50,  999.0,  999.0,    0.0,    0.0,   -0.1,    0.0,   -0.0,   -0.0,   -0.0,   -0.0,   -0.0,   -0.0,   -0.1,   -0.1,    0.0,    0.1,    0.0,   -0.1,   -0.1,   -0.1,   -0.1,   -0.0,   -0.1,    1.7,    2.0,    7.3,    2.3,    5.8,   -3.6,   -2.5,   -0.0,    0.1,    0.1,    0.0,    0.0,   -0.0,    0.0,    0.0,    0.2,    0.1,    0.1,    0.0,   -0.1,   -0.0,   -0.1,    0.0,    0.2,    0.3,   -0.1,    0.1,    0.0,   -0.1,    0.1,    0.1,   -0.0,   -0.1,    0.0,    0.0,    0.1,    0.0,   -0.0,    0.1,    0.2,   -0.1,  999.0,   -0.1,    0.0,    0.0,    0.1,    0.1,   -0.0,   -0.1,   -0.1,   -0.1,  999.0,  999.0,  999.0,  999.0,  999.0,  999.0
2015/10/02 09:00,  999.0,  999.0,    0.0,    0.0,    0.0,   -0.0,    0.0,    0.0,   -0.0,   -0.0,   -0.0,    0.0,    0.1,    0.1,    0.1,    0.0,   -0.0,   -0.0,   -0.0,    0.1,   -0.0,    0.0,    1.5,    2.4,    0.1,    2.5,    0.0,    2.6,   -0.1,    0.0,   -0.0,    0.1,    0.0,    0.0,   -0.0,   -0.0,    0.0,   -0.0,    0.0,   -0.0,   -0.1,   -0.0,    0.1,    0.1,    0.1,    0.1,    0.0,   -0.1,   -0.1,   -0.0,   -0.0,   -0.1,   -0.1,   -0.1,    0.0,    0.0,    0.1,    0.1,    0.0,    0.0,   -0.0,    0.0,    0.0,    0.1,   -0.2,   -0.0,    0.3,    0.1,   -0.1,    0.1,   -0.0,   -0.0,   -0.1,    0.1,  999.0,  999.0,  999.0,  999.0,  999.0,  999.0
2015/10/02 09:10,  999.0,  999.0,    0.0,    0.1,    0.1,    0.1,    0.0,    0.0,    0.1,    0.0,    0.0,    0.0,    0.1,   -0.0,    0.1,    0.1,    0.1,    0.1,   -0.0,   -0.0,    0.1,   -0.0,   -0.2,   -0.0,   -0.0,   -6.1,   -3.6,    2.9,    2.1,   -0.0,   -0.1,   -0.1,   -0.0,    0.1,   -0.0,    0.0,    0.0,    0.1,    0.1,    0.0,    0.0,   -0.0,   -0.1,    0.0,   -0.0,   -0.1,    0.0,    0.1,   -0.0,   -0.0,    0.2,    0.0,   -0.2,    0.0,   -0.0,   -0.0,    0.1,   -0.2,    0.1,   -0.2,    0.0,    0.1,   -0.2,    0.1,   -0.1,   -0.2,   -0.3,   -0.2,   -0.4,   -0.0,   -0.3,    0.1,    0.3,   -0.3,  999.0,  999.0,  999.0,  999.0,  999.0,  999.0
2015/10/02 09:20,  999.0,  999.0,   -0.0,   -0.0,    0.1,    0.0,   -0.0,   -0.0,   -0.0,   -0.0,   -0.1,    0.1,    0.1,    0.0,   -0.0,   -0.1,    0.1,    0.0,    0.0,   -0.0,   -0.1,   -0.1,   -0.1,   -0.1,   -0.1,    0.0,    5.9,    2.7,    3.6,    6.6,   -0.0,    0.0,    0.0,    0.1,    0.1,   -0.1,   -0.1,    0.0,    0.0,   -0.0,   -0.0,   -0.1,   -0.0,    0.1,   -0.0,    0.0,    0.0,    0.0,    0.1,    0.2,    0.1,    0.2,   -0.0,   -0.1,   -0.1,   -0.1,    0.4,    0.2,   -0.4,   -0.6,   -0.1,    0.0,    0.1,   -0.0,   -0.6,    0.2,   -0.0,    0.1,    0.1,    0.0,    0.0,    0.1,    0.1,   -0.1,    0.1,  999.0,  999.0,  999.0,  999.0,  999.0
2015/10/02 09:30,  999.0,  999.0,    0.1,   -0.1,   -0.0,   -0.1,   -0.1,   -0.1,   -0.1,   -0.0,    0.0,    0.1,   -0.0,    0.1,    0.0,    0.0,   -0.1,   -0.1,   -0.2,   -0.1,   -0.0,    0.0,   -0.0,    4.2,   -0.0,    0.2,    7.1,   10.3,   10.5,    5.5,    2.7,    0.0,   -0.0,   -0.1,   -0.1,   -0.0,   -0.1,   -0.0,   -0.1,   -0.1,    0.1,    0.1,   -0.0,   -0.0,   -0.1,   -0.1,   -0.0,   -0.1,   -0.1,    0.0,   -0.1,    0.1,   -0.0,    0.0,    0.0,    0.2,    0.1,    0.1,    0.1,   -0.1,   -0.1,   -0.1,   -0.2,   -0.2,   -0.1,    0.2,   -0.0,    0.1,    0.0,  999.0,    0.1,    0.1,   -0.5,   -0.1,  999.0,  999.0,  999.0,  999.0,  999.0,  999.0
2015/10/02 09:40,  999.0,  999.0,    0.1,    0.0,    0.0,    0.1,   -0.0,   -0.0,   -0.0,   -0.1,    0.1,    0.0,    0.0,   -0.1,    0.0,    0.1,    0.0,   -0.1,   -0.1,   -0.1,    0.1,    0.0,    0.0,    1.4,    6.4,   -0.0,    8.7,   12.1,   12.2,    4.9,    2.7,    2.1,   -0.0,    0.1,    0.0,    0.0,   -0.3,   -0.1,   -0.1,    0.1,   -0.0,   -0.0,    0.2,    0.1,    0.2,    0.1,   -0.1,   -0.1,   -0.0,   -0.1,    0.1,    0.0,   -0.1,   -0.1,    0.0,    0.1,   -0.0,    0.2,    0.1,   -0.4,   -0.2,   -0.3,   -0.1,   -0.1,   -0.1,   -0.0,   -0.1,    0.0,    0.3,    0.0,  999.0,    0.1,   -0.1,   -0.1,    0.2,  999.0,  999.0,  999.0,  999.0,  999.0
2015/10/02 09:50,  999.0,  999.0,   -0.1,    0.0,    0.1,   -0.0,    0.0,    0.0,    0.1,    0.0,   -0.0,   -0.0,    0.1,    0.0,   -0.1,    0.0,    0.0,   -0.1,   -0.0,    0.1,    0.1,   -0.0,    0.0,    0.1,    0.0,    0.1,    0.1,    0.0,   -0.0,   -0.1,   -0.1,   -0.0,    0.0,    0.0,    0.0,    0.0,   -0.0,   -0.1,   -0.1,    0.1,    0.0,    0.1,    0.0,   -0.1,   -0.3,   -0.0,    0.0,   -0.0,    0.0,    0.2,   -0.1,    0.0,   -0.2,    0.0,    0.1,    0.2,   -0.1,    0.0,    0.1,   -0.1,   -0.2,    0.1,    0.1,   -0.1,    0.1,   -0.2,    0.1,    0.3,   -0.0,    0.1,   -0.1,   -0.3,   -0.0,   -0.1,    0.1,  999.0,    0.2,  999.0,  999.0,  999.0
2015/10/02 10:00,  999.0,  999.0,   -0.0,   -0.0,   -0.1,    0.0,    0.0,    0.0,    0.0,    0.1,   -0.1,   -0.0,    0.0,    0.1,    0.1,    0.1,   -0.1,   -0.0,   -0.0,   -0.1,   -0.0,    0.0,    0.0,    0.0,    0.1,    0.0,    0.1,   -0.1,   -0.1,   -0.1,   -0.2,   -0.0,   -0.1,   -0.1,   -0.1,   -0.0,    0.0,   -0.0,   -0.1,    0.1,   -0.0,    0.0,    0.0,    0.0,   -0.1,   -0.0,   -0.0,   -0.0,   -0.0,    0.0,   -0.2,   -0.0,   -0.1,    0.1,   -0.0,    0.1,   -0.0,    0.1,    0.0,    0.1,   -0.2,   -0.1,    0.1,   -0.0,   -0.1,    0.3,   -0.0,    0.0,   -0.2,   -0.1,    0.0,   -0.1,    0.1,    0.0,   -0.2,  999.0,  999.0,  999.0,  999.0,  999.0
2015/10/02 10:10,  999.0,  999.0,    0.1,    0.1,   -0.0,    0.1,   -0.0,    0.1,   -0.1,   -0.0,   -0.1,   -0.1,    0.1,   -0.0,   -0.0,    0.1,   -0.6,    0.0,   -0.0,   -0.0,   -0.0,   -0.0,   -0.0,   -0.0,    0.1,    0.1,    0.1,    0.2,    0.0,    0.1,    0.0,    0.1,   -0.0,   -0.0,   -0.0,    0.1,    0.0,   -0.0,   -0.1,   -0.0,   -0.0,   -0.0,    0.1,    0.0,   -0.1,   -0.1,    0.1,    0.0,   -0.0,    0.1,    0.2,   -0.1,   -0.1,   -0.1,    0.0,   -0.1,   -0.0,    0.0,   -0.1,   -0.1,   -0.3,   -0.2,    0.1,   -0.1,   -0.3,   -0.3,  999.0,  999.0,   -0.0,  999.0,   -0.2,  999.0,   -0.1,   -0.1,  999.0,  999.0,  999.0,  999.0,  999.0,  999.0
2015/10/02 10:20,  999.0,  999.0,   -0.0,   -0.0,   -0.0,    0.1,    0.1,   -0.1,  999.0,    0.1,   -0.0,   -0.1,    0.1,    0.2,    0.1,    0.1,   -0.1,   -0.0,   -0.0,    0.0,   -0.1,   -0.1,   -0.0,    0.1,    0.0,   -0.0,   -0.0,   -0.1,   -0.1,   -0.1,    0.1,   -0.1,    0.1,    0.0,   -0.1,   -0.1,   -0.0,   -0.0,    0.1,    0.0,   -0.2,   -0.0,   -0.0,   -0.1,    0.2,    0.0,   -0.0,    0.0,   -0.1,    0.1,   -0.1,   -0.1,   -0.1,    0.1,   -0.0,   -0.1,    0.3,   -0.1,    0.1,    0.1,   -0.0,    0.0,    0.0,    0.0,    0.3,   -0.1,   -0.0,   -0.1,  999.0,  999.0,    0.3,  999.0,   -0.0,  999.0,  999.0,  999.0,  999.0,  999.0,  999.0,  999.0
2015/10/02 10:30,  999.0,  999.0,   -0.1,    0.0,    0.2,    0.1,   -0.0,   -0.1,  999.0,   -0.1,   -0.1,    0.0,    6.1,  999.0,  999.0,    0.0,   -0.0,   -0.1,   -0.0,    0.1,   -0.1,   -8.8,   -4.8,   -0.1,   -3.2,    0.1,   -0.1,   -0.0,    0.1,    0.1,   -0.1,   -0.0,    0.1,    0.1,    0.0,   -0.0,   -0.1,   -0.1,   -0.0,    0.1,   -0.1,   -0.0,    0.1,   -0.0,    0.1,    0.1,   -0.0,   -0.1,   -0.0,   -0.1,    0.1,   -0.0,   -0.0,    0.0,   -0.0,    0.2,    0.1,    0.6,    0.0,    0.2,    0.1,    0.0,    0.3,    0.0,   -0.1,   -0.2,   -0.2,   -0.1,    0.0,  999.0,  999.0,    0.2,    0.1,  999.0,  999.0,  999.0,  999.0,  999.0,  999.0,  999.0
2015/10/02 10:40,  999.0,  999.0,    0.1,   -0.2,    0.1,   -0.1,   -0.0,  999.0,   -0.2,    0.0,   -0.0,   -0.0,    0.0,    0.0,    0.0,   -0.0,   -0.0,    0.0,   -0.3,   -0.1,   -5.2,   -7.1,   -2.1,   -9.1,  999.0,    0.0,   -0.0,   -4.4,   -0.0,    0.1,   -0.0,    0.0,   -0.1,   -0.0,   -0.1,   -0.0,   -0.1,   -0.0,   -0.1,   -0.0,    0.0,    0.1,    0.0,   -0.0,   -0.1,    0.0,    0.1,   -0.0,   -0.0,   -0.2,   -0.0,   -0.2,   -0.1,   -0.1,   -0.2,   -0.1,    0.1,    0.1,   -0.1,    0.2,   -0.1,   -0.5,    0.1,   -0.2,    0.0,    0.0,    0.1,   -0.2,   -0.4,  999.0,    0.2,  999.0,   -0.1,   -0.1,  999.0,  999.0,  999.0,  999.0,  999.0,  999.0
2015/10/02 10:50,  999.0,  999.0,    0.0,   -0.1,  999.0,    0.1,  999.0,  999.0,   -0.1,  999.0,    0.1,    0.1,   -0.1,  999.0,  999.0,  999.0,  999.0,   -2.7,  999.0,  999.0,  999.0,    0.1,  -21.8,  -12.6,  -17.5,   -3.1,    0.0,   -0.1,    0.1,    0.1,    0.1,    0.0,    0.1,    0.1,    0.1,    0.1,    0.1,    0.0,    0.1,   -0.0,   -0.1,   -0.5,   -0.1,   -0.1,   -0.1,    0.2,    0.1,    0.1,    0.1,   -0.2,    0.0,    0.1,    0.2,   -0.0,   -0.1,    0.1,    0.2,    0.0,    0.1,   -0.3,    0.2,    0.3,    0.3,   -0.1,   -0.1,    0.1,    0.1,   -0.0,   -0.0,    0.2,    0.1,   -0.0,   -0.2,    0.0,  999.0,  999.0,  999.0,  999.0,  999.0,  999.0
2015/10/02 11:00,  999.0,  999.0,    0.2,    0.1,   -0.7,   -0.1,   -0.1,  999.0,  999.0,  999.0,  999.0,  999.0,  999.0,  999.0,  999.0,  999.0,  999.0,  999.0,  999.0,  999.0,  999.0,  999.0,  999.0,    2.9,   -3.2,   -0.1,    0.2,   -0.1,   -0.1,    0.1,   -0.1,    0.0,   -0.0,   -0.1,    0.0,    0.3,    0.1,   -0.0,   -0.2,    0.0,   -0.3,   -0.2,    0.2,   -0.1,   -0.2,   -0.0,   -0.1,   -0.1,   -0.0,   -0.1,   -0.1,    0.2,   -0.1,    0.3,    0.3,    0.1,   -0.2,   -0.1,   -0.1,    0.0,   -0.3,    0.1,    0.0,   -0.2,    0.0,   -0.1,    0.1,   -0.1,   -0.0,  999.0,  999.0,    0.0,  999.0,    0.0,  999.0,  999.0,  999.0,  999.0,  999.0,  999.0
2015/10/02 11:10,  999.0,  999.0,    0.2,   -0.0,   -2.9,  999.0,  999.0,  999.0,  999.0,  999.0,  999.0,   21.6,   23.0,  999.0,   36.0,  999.0,  999.0,  999.0,  999.0,  999.0,  999.0,  999.0,  999.0,   16.9,  999.0,   -1.5,    0.0,   -1.3,    0.0,    0.0,   -0.0,   -0.1,   -0.1,   -0.0,    0.1,    0.1,    0.1,   -0.0,   -0.3,    0.1,   -0.1,   -0.1,    0.3,    0.0,   -0.0,   -0.0,    0.0,   -0.2,   -0.1,   -0.0,   -0.1,   -0.0,   -0.2,   -0.0,   -0.1,   -0.0,    0.0,    0.2,    0.4,   -0.0,   -0.0,   -0.1,   -0.0,    0.3,    0.2,    0.1,  999.0,  999.0,   -0.0,  999.0,   -0.4,   -0.0,   -0.1,    0.0,   -0.8,  999.0,  999.0,  999.0,  999.0,  999.0
2015/10/02 11:20,  999.0,  999.0,    0.2,    0.1,    0.0,    0.0,   -0.2,    0.1,   -0.1,    4.0,   -4.9,    7.7,    2.7,    5.8,  999.0,    9.8,  999.0,   24.7,   -0.2,  -15.3,    0.1,  -10.8,   -7.7,   -4.2,   -8.3,    0.0,   -2.1,   -0.1,    0.0,    0.0,    0.1,    0.0,   -0.1,    0.0,    0.0,    0.0,   -0.1,   -0.1,    0.2,    0.0,   -0.1,   -0.1,   -0.1,    0.0,    0.1,   -0.2,   -0.0,    0.0,   -0.0,   -0.0,   -0.1,    0.2,    0.1,   -0.1,    0.2,   -0.1,   -0.1,    0.0,    0.0,    0.0,   -0.1,    0.0,   -0.1,    0.0,   -0.2,   -0.0,   -0.1,    0.0,   -0.1,   -0.1,   -0.2,  999.0,  999.0,  999.0,  999.0,  999.0,  999.0,  999.0,  999.0,  999.0
2015/10/02 11:30,  999.0,  999.0,    1.6,   -0.0,    0.2,    2.0,    0.3,  999.0,  999.0,  999.0,  999.0,  999.0,    8.5,   17.6,  999.0,  999.0,  999.0,  999.0,  999.0,  999.0,  -12.9,  999.0,  999.0,  999.0,  999.0,    0.0,    0.0,   -0.2,    0.1,   -0.0,   -0.1,   -0.1,   -0.1,    0.0,    0.0,    0.0,    0.0,    0.1,   -0.0,   -0.1,   -0.0,   -0.0,   -0.1,    0.0,   -0.3,   -0.1,   -0.1,   -0.1,   -0.2,   -0.2,    0.1,    0.0,   -0.1,   -0.0,    0.2,    0.1,    0.0,   -0.1,    0.1,   -0.0,    0.1,    0.1,    0.2,   -0.2,   -0.1,    0.2,    0.1,    0.0,    0.4,  999.0,   -0.1,  999.0,   -0.1,  999.0,  999.0,  999.0,  999.0,  999.0,  999.0,  999.0
2015/10/02 11:40,  999.0,  999.0,   -0.8,  999.0,  999.0,  999.0,  999.0,  999.0,  999.0,  999.0,  999.0,  999.0,  999.0,  999.0,  999.0,  999.0,  999.0,  999.0,  -11.4,  999.0,  999.0,  999.0,  999.0,  999.0,  999.0,    0.1,    0.0,    0.1,   -0.0,   -0.1,    0.0,    0.1,   -0.0,   -0.2,   -0.1,   -0.2,   -0.2,    0.0,    0.1,    0.0,    0.1,   -0.1,    0.1,    0.1,    0.2,    0.0,   -0.0,   -0.1,    0.0,   -0.0,   -0.3,  999.0,    0.1,    0.2,    0.1,   -0.0,    0.1,   -0.0,    0.1,    0.2,    0.1,    0.1,    0.0,   -0.1,   -0.1,   -0.2,  999.0,    0.1,  999.0,    0.2,  999.0,  999.0,  999.0,   -0.1,  999.0,  999.0,  999.0,  999.0,  999.0,  999.0
2015/10/02 11:50,  999.0,  999.0,   -0.1,   -0.1,   -0.1,  999.0,  999.0,  999.0,  999.0,  999.0,  999.0,  999.0,  999.0,  999.0,   -0.0,    8.9,   -0.1,   -0.2,  999.0,    0.1,  999.0,   -0.0,  999.0,   -0.2,  999.0,    0.1,    0.0,   -0.1,    0.0,    0.0,    0.0,   -0.1,   -0.1,   -0.1,   -0.0,   -0.0,   -0.0,    0.1,   -0.1,   -0.2,   -0.1,    0.1,    0.0,    0.0,   -0.2,   -0.2,   -0.0,    0.1,    0.0,   -0.1,   -0.0,   -0.0,    0.1,   -0.0,    0.0,    0.0,   -0.0,    0.0,    0.0,    0.1,    0.0,    0.0,   -0.1,   -0.1,   -0.0,    0.2,    0.1,   -0.1,   -0.0,    0.2,    0.2,   -0.1,   -0.2,  999.0,  999.0,  999.0,  999.0,  999.0,  999.0,  999.0
2015/10/02 12:00,  999.0,  999.0,   -0.1,    0.0,    0.1,   -0.1,    0.0,    0.1,    0.0,   -0.0,   -0.1,    4.8,    5.8,    5.5,    5.5,    5.4,   -0.0,    0.0,   -0.0,    0.1,    0.0,   -0.0,   -0.1,    0.1,    0.0,    0.1,    0.1,    0.1,    0.0,   -0.0,    0.1,   -0.0,    0.0,    0.0,    0.0,   -0.1,   -0.0,   -0.1,   -0.0,    0.1,    0.1,   -0.2,   -0.0,    0.1,    0.0,   -0.0,   -0.0,    0.0,    0.0,   -0.0,   -0.0,    0.1,    0.2,   -0.0,    0.1,    0.1,    0.0,    0.1,    0.0,   -0.1,   -0.1,    0.3,    0.1,   -0.1,   -0.1,   -0.0,   -0.0,   -0.1,    0.0,  999.0,    0.0,    0.2,    0.2,  999.0,  999.0,  999.0,  999.0,  999.0,  999.0,  999.0
2015/10/02 12:10,  999.0,  999.0,   -0.1,    0.0,    0.0,    0.1,    0.0,   -0.0,    0.0,   -0.0,    0.0,   -0.0,    0.0,   -0.0,   -0.0,    0.0,    0.1,    0.0,   -0.1,   -0.1,    0.0,    0.0,    0.0,    0.1,   -0.0,    0.0,    0.0,    0.0,    0.1,    0.1,    0.1,    0.1,    0.2,    0.2,   -0.1,    0.1,    0.0,    0.0,    0.0,    0.0,   -0.1,   -0.1,    0.0,    0.0,    0.1,   -0.1,   -0.1,    0.1,   -0.1,   -0.1,   -0.1,    0.1,    0.1,   -0.1,   -0.0,   -0.1,   -0.1,   -0.1,   -0.1,   -0.0,    0.2,    0.1,    0.1,   -0.0,   -0.1,   -0.0,   -0.1,    0.3,  999.0,  999.0,  999.0,  999.0,  999.0,    0.3,  999.0,  999.0,  999.0,  999.0,  999.0,  999.0
2015/10/02 12:20,  999.0,  999.0,    0.0,    0.1,   -0.1,    0.0,    0.0,   -0.0,   -0.1,   -0.0,   -0.0,   -0.0,    0.0,    0.1,   -0.0,    0.0,    0.1,    0.1,    0.1,    0.1,    0.0,    0.1,    0.1,    0.0,   -0.0,   -0.1,   -0.1,   -0.0,   -0.0,   -0.1,   -0.1,    0.1,    0.0,    0.1,    0.0,   -0.0,   -0.0,   -0.0,    0.2,    0.1,   -0.1,   -0.1,    0.1,    0.1,    0.0,    0.1,    0.1,    0.1,   -0.1,    0.0,   -0.1,   -0.1,    0.2,    0.1,    0.1,    0.2,   -0.0,    0.1,   -0.0,   -0.2,   -0.5,   -0.1,    0.0,   -0.2,   -0.1,    0.2,   -0.0,    0.1,    0.2,   -0.0,    0.1,  999.0,    0.0,   -0.1,  999.0,  999.0,  999.0,  999.0,  999.0,  999.0
2015/10/02 12:30,  999.0,  999.0,   -0.0,   -0.1,   -0.1,   -0.0,    0.0,    0.0,   -0.0,   -0.1,   -0.2,    0.1,    0.0,   -0.1,   -0.0,   -0.0,    0.0,    0.0,    0.0,    0.0,   -0.0,    0.1,    0.1,    0.1,    0.0,    0.0,   -0.0,   -0.1,   -0.0,   -0.0,   -0.0,    0.0,    0.0,   -0.0,    0.0,   -0.0,    0.0,   -0.0,   -0.0,   -0.1,   -0.1,   -0.1,    0.1,    0.0,    0.1,    0.0,    0.0,    0.1,    0.0,    0.1,    0.2,    0.2,    0.2,   -0.1,    0.0,   -0.1,   -0.2,    0.0,   -0.1,    0.2,    0.0,    0.3,    0.2,   -0.1,    0.1,    0.0,   -0.1,    0.0,    0.1,   -0.0,  999.0,   -0.1,   -0.0,  999.0,  999.0,  999.0,  999.0,  999.0,  999.0,  999.0
2015/10/02 12:40,  999.0,  999.0,   -0.1,   -0.0,    0.0,    0.0,    0.0,    0.1,   -0.1,    0.0,  999.0,    0.1,    0.2,    0.1,    0.4,   -0.1,    0.0,    0.1,    0.0,    0.1,    0.0,   -0.0,   -0.0,   -0.1,   -0.2,   -0.0,   -0.1,    0.0,   -0.0,    0.0,   -0.0,    0.0,    0.1,   -0.1,    0.1,   -0.0,   -0.1,   -0.1,    0.1,   -0.1,   -0.2,   -0.2,   -0.0,   -0.0,   -0.0,    0.1,    0.0,   -0.0,   -0.0,    0.1,   -0.2,    0.2,    0.1,   -0.0,   -0.1,   -0.0,    0.1,    0.1,   -0.0,    0.0,    0.1,    0.1,    0.2,    0.1,    0.0,   -0.1,    0.1,    0.2,    0.2,  999.0,  999.0,  999.0,  999.0,  999.0,  999.0,  999.0,  999.0,  999.0,  999.0,  999.0
2015/10/02 12:50,  999.0,  999.0,  999.0,   -0.0,  999.0,    0.0,   -0.0,  999.0,    0.0,   -0.1,  999.0,    5.6,    0.0,   -0.1,   11.1,   -0.1,    0.0,   -0.1,   -0.0,   -0.0,   -0.0,   -0.0,   -0.0,    0.1,   -0.0,    0.0,    0.0,    0.0,   -0.1,    0.1,    0.1,   -0.0,   -0.1,    0.1,   -0.1,    0.1,   -0.1,    0.0,    0.0,   -0.1,   -0.1,   -0.2,   -0.1,   -0.1,    0.1,    0.1,   -0.0,   -0.1,   -0.1,   -0.0,   -0.1,   -0.0,   -0.0,   -0.1,    0.2,   -0.0,   -0.0,   -0.0,   -0.0,   -0.1,   -0.2,    0.1,   -0.1,    0.0,   -0.1,   -0.0,   -0.2,   -0.1,    0.1,    0.2,   -0.0,   -0.1,   -0.2,  999.0,  999.0,  999.0,  999.0,  999.0,  999.0,  999.0
2015/10/02 13:00,  999.0,  999.0,   -0.0,   -0.1,   -0.0,    0.0,    0.1,    0.0,   -0.1,   -0.1,    0.0,   -0.0,   -0.0,   -0.1,   -0.0,   -0.0,    0.0,    0.1,    0.0,   -0.0,   -0.0,   -0.1,    0.0,    0.0,    0.1,    0.0,    0.1,   -0.0,   -0.0,    0.0,   -0.1,    0.1,   -0.0,    0.0,    0.1,    0.1,    0.1,    0.2,   -0.0,   -0.2,   -0.2,   -0.1,    0.1,    0.0,   -0.1,    0.0,   -0.0,   -0.1,   -0.1,   -0.1,    0.1,    0.0,    0.2,   -0.0,    0.1,    0.0,   -0.0,    0.2,    0.0,   -0.0,   -0.1,   -0.1,   -0.0,    0.0,    0.0,    0.0,    0.1,    0.0,    0.1,    0.2,  999.0,   -0.2,    0.0,  999.0,  999.0,  999.0,  999.0,  999.0,  999.0,  999.0
2015/10/02 13:10,  999.0,  999.0,  999.0,    0.6,    0.6,    0.5,    0.8,    0.7,    0.8,    2.4,  999.0,    0.9,    3.1,    2.5,    0.2,    0.1,    0.0,   -0.1,   -0.0,   -0.2,   -0.0,    0.0,    0.1,    0.0,   -0.0,    0.1,    0.1,   -0.1,    0.0,    0.0,   -0.1,    0.1,   -0.1,    0.3,   -0.2,    0.3,    0.2,    0.3,    0.5,    0.3,   -0.1,   -0.1,    0.1,   -0.0,    0.2,    0.1,    0.1,    0.0,   -0.0,    0.2,   -0.0,   -0.2,   -0.3,    0.0,    0.0,    0.2,   -0.1,   -0.1,    0.1,    0.0,    0.0,   -0.2,    0.1,    0.1,   -0.1,    0.0,   -0.2,   -0.5,   -0.2,    0.0,   -0.0,  999.0,  999.0,  999.0,  999.0,  999.0,  999.0,  999.0,  999.0,  999.0
2015/10/02 13:20,  999.0,  999.0,    0.2,    0.3,    1.0,    1.2,    1.3,    1.1,    1.1,    1.0,    1.5,    2.0,    3.1,    3.9,    3.1,    1.7,    0.7,    0.2,   -0.0,    0.0,   -0.1,    0.0,   -0.1,    0.1,    0.1,    0.1,    0.1,    0.0,    0.1,    0.1,   -0.1,   -0.0,    0.1,    0.1,   -0.0,    0.3,   -0.1,   -0.1,   -0.1,    0.1,    0.0,   -0.1,   -0.2,    0.0,   -0.1,    0.1,   -0.0,   -0.2,    0.1,   -0.0,    0.2,    0.1,   -0.0,   -0.1,   -0.0,   -0.2,    0.1,    0.1,   -0.1,   -0.3,   -0.3,    0.1,   -0.0,    0.2,    0.3,    0.1,   -0.1,   -0.1,   -0.3,  999.0,   -0.2,  999.0,   -0.0,  999.0,  999.0,  999.0,  999.0,  999.0,  999.0,  999.0
2015/10/02 13:30,  999.0,    0.5,    0.4,    0.5,    0.7,    0.5,    0.5,    1.2,    1.4,    1.1,    2.2,    2.5,    1.9,    2.4,    1.3,    1.1,    0.6,    0.3,    0.1,    0.0,    0.0,   -0.0,   -0.1,   -0.0,    0.1,   -0.1,   -0.1,   -0.1,    0.0,   -0.0,    0.0,   -0.2,   -0.0,    0.2,   -0.3,    0.2,    0.1,    0.2,   -0.0,    0.2,   -0.1,    0.2,   -0.1,    0.1,   -0.0,    0.0,   -0.1,   -0.0,    0.0,    0.0,   -0.1,   -0.2,   -0.0,    0.1,    0.1,   -0.3,   -0.3,   -0.3,    0.1,    0.2,    0.3,   -0.0,   -0.3,    0.1,   -0.2,    0.2,   -0.1,    0.1,    0.1,  999.0,  999.0,  999.0,  999.0,  999.0,  999.0,  999.0,  999.0,  999.0,  999.0,  999.0
2015/10/02 13:40,  999.0,  999.0,    3.0,    0.4,    1.3,    4.5,    4.7,    6.4,    7.4,   11.0,   10.7,   11.1,   11.2,   10.1,    8.6,    6.3,    4.9,    3.4,    2.4,    1.0,    0.4,   -0.1,    0.0,    0.1,    0.1,    0.1,   -0.1,   -0.0,    0.1,   -0.2,    0.0,   -0.1,    0.2,    0.1,   -0.3,    0.0,    0.3,    0.0,    0.0,    0.0,   -0.3,   -0.2,   -0.2,   -0.2,   -0.0,   -0.1,   -0.1,   -0.1,   -0.0,   -0.0,    0.2,    0.2,   -0.1,   -0.1,   -0.1,    0.3,   -0.1,   -0.2,   -0.1,   -0.2,   -0.0,    0.1,   -0.0,   -0.4,   -0.2,   -0.2,    0.1,   -0.0,    0.0,  999.0,  999.0,   -0.1,  999.0,  999.0,  999.0,  999.0,  999.0,  999.0,  999.0,  999.0
2015/10/02 13:50,  999.0,  999.0,   -0.0,    0.2,   -0.2,    0.2,    0.5,    0.5,    1.3,    3.2,    5.3,    4.4,    4.5,    4.2,    4.8,    5.3,    3.5,    2.6,    0.2,    1.4,    1.0,    0.8,    0.3,   -0.0,    0.0,    0.1,   -0.2,   -0.1,   -0.1,    0.1,   -0.2,    0.1,    0.0,    0.1,   -0.1,    0.1,   -0.0,   -0.3,   -0.1,    0.1,   -0.1,   -0.0,   -0.1,   -0.0,   -0.0,    0.0,   -0.0,    0.1,    0.0,    0.2,    0.2,    0.2,   -0.0,   -0.0,    0.1,    0.1,    0.2,   -0.1,   -0.1,   -0.2,    0.0,    0.1,   -0.1,   -0.0,    0.1,   -0.0,    0.1,    0.0,  999.0,    0.0,    0.2,  999.0,  999.0,  999.0,  999.0,  999.0,  999.0,  999.0,  999.0,  999.0
2015/10/02 14:00,  999.0,  999.0,  999.0,  999.0,  999.0,  999.0,  999.0,   -0.1,    2.7,    3.6,    2.0,    4.2,    4.2,    3.3,    3.3,    2.4,    2.6,    1.5,    0.8,   -0.1,   -0.0,    0.0,   -0.0,   -0.1,   -0.1,   -0.0,   -0.2,   -0.0,    0.3,    0.1,   -0.0,   -0.2,   -0.2,    0.2,    0.0,   -0.1,   -0.1,   -0.1,   -0.1,   -0.0,   -0.1,   -0.1,   -0.1,   -0.0,   -0.0,    0.0,   -0.0,   -0.0,    0.1,    0.0,    0.0,    0.1,    0.1,   -0.0,   -0.2,   -0.1,    0.1,    0.1,   -0.2,    0.1,    0.0,   -0.1,    0.3,   -0.1,    0.1,    0.3,    0.1,    0.0,    0.1,   -0.3,   -0.1,  999.0,  999.0,  999.0,  999.0,  999.0,  999.0,  999.0,  999.0,  999.0
2015/10/02 14:10,  999.0,  999.0,   -0.8,    0.4,   -0.6,   -0.2,   -0.4,  999.0,  999.0,  999.0,  999.0,   -0.7,   -0.0,    0.8,    1.1,    1.6,    0.9,    0.3,    0.9,    0.5,    0.1,    0.0,   -0.0,   -0.1,   -0.1,    0.1,    0.1,   -0.0,   -0.1,   -0.0,   -0.1,    0.0,   -0.0,    0.2,    0.1,    0.1,    0.0,   -0.1,   -0.1,    0.0,   -0.0,   -0.0,   -0.1,    0.0,    0.1,   -0.0,    0.0,    0.1,    0.1,    0.2,    0.1,    0.2,    0.1,    0.1,    0.1,    0.2,   -0.1,    0.1,    0.1,    0.2,    0.1,    0.1,    0.1,   -0.0,    0.1,    0.4,   -0.0,  999.0,   -0.0,  999.0,  999.0,  999.0,    0.0,  999.0,  999.0,  999.0,  999.0,  999.0,  999.0,  999.0
2015/10/02 14:20,  999.0,    0.2,   -0.0,   -0.2,    0.2,   -0.8,   -0.7,   -0.2,    0.0,  999.0,    0.3,  999.0,  999.0,   -0.3,    1.3,    1.6,    1.3,    0.5,    0.4,    0.1,   -0.0,    0.1,    0.1,    0.0,   -0.1,   -0.0,   -0.0,   -0.0,   -0.1,   -0.0,    0.0,   -0.1,   -0.4,    0.2,   -0.0,    0.1,    0.2,   -0.1,    0.1,   -0.0,   -0.2,    0.0,    0.2,    0.1,   -0.1,   -0.1,   -0.1,   -0.0,   -0.0,    0.1,    0.1,   -0.0,    0.0,    0.0,    0.0,    0.2,   -0.1,    0.1,    0.1,    0.0,    0.0,   -0.1,    0.4,   -0.1,    0.0,    0.0,    0.4,    0.1,    0.1,    0.1,  999.0,  999.0,  999.0,  999.0,  999.0,  999.0,  999.0,  999.0,  999.0,  999.0
2015/10/02 14:30,  999.0,  999.0,    0.7,    0.5,    0.5,   -0.6,   -0.7,   -0.1,    0.0,   -0.2,   -0.3,   -0.0,    0.4,    1.6,    1.1,    1.8,    1.3,    0.4,    0.2,    0.1,    0.1,    0.1,    0.1,    0.0,    0.1,   -0.0,   -0.0,   -0.0,    0.1,    0.1,    0.0,    0.1,    0.1,    0.2,    0.1,   -0.1,    0.1,   -0.0,    0.1,   -0.0,    0.0,    0.0,   -0.0,    0.0,    0.1,   -0.1,   -0.1,   -0.1,    0.1,    0.2,    0.0,   -0.0,   -0.2,   -0.0,   -0.0,   -0.2,   -0.2,    0.0,    0.2,    0.0,   -0.3,   -0.1,   -0.1,   -0.2,    0.2,   -0.1,    0.2,    0.1,    0.2,   -0.2,    0.2,   -0.4,   -0.0,  999.0,  999.0,  999.0,  999.0,  999.0,  999.0,  999.0
2015/10/02 14:40,  999.0,    0.3,    0.7,    0.5,    0.2,   -0.2,    0.2,    0.2,   -0.2,   -0.3,    0.0,    0.6,    0.8,    1.5,    2.3,    2.0,    2.4,    1.1,    1.5,    1.0,    0.7,    0.5,    0.2,    0.2,    0.1,    0.2,    0.0,    0.1,   -0.0,   -0.0,   -0.1,    0.1,   -0.1,   -0.0,   -0.1,    0.0,    0.0,   -0.0,    0.0,    0.0,   -0.1,   -0.3,   -0.3,   -0.1,   -0.1,    0.1,   -0.0,   -0.0,   -0.3,   -0.0,    0.0,   -0.1,    0.0,    0.1,    0.1,   -0.2,   -0.1,   -0.1,    0.2,    0.2,    0.2,    0.1,   -0.1,   -0.2,   -0.1,    0.0,    0.1,   -0.2,  999.0,  999.0,    0.1,   -0.0,  999.0,  999.0,  999.0,  999.0,  999.0,  999.0,  999.0,  999.0
2015/10/02 14:50,  999.0,   -0.1,    0.1,   -0.0,   -0.0,   -0.2,   -0.5,   -0.0,    0.1,   -0.4,   -0.7,   -0.1,    0.3,  999.0,    1.4,   -0.5,    0.9,    1.8,    1.6,    1.9,    0.3,    0.0,    0.2,    0.1,    0.1,    0.0,    0.1,   -0.1,   -0.1,    0.1,   -0.1,    0.0,   -0.0,   -0.1,    0.1,   -0.0,    0.0,   -0.1,   -0.0,   -0.1,    0.0,   -0.1,   -0.1,   -0.1,   -0.1,   -0.2,   -0.0,   -0.1,    0.1,    0.0,   -0.1,   -0.0,    0.0,   -0.3,    0.0,    0.1,    0.0,    0.0,    0.1,    0.1,   -0.1,    0.0,    0.2,   -0.0,    0.1,   -0.0,   -0.2,  999.0,   -0.0,  999.0,    0.0,    0.0,    0.1,  999.0,  999.0,  999.0,  999.0,  999.0,  999.0,  999.0
2015/10/02 15:00,  999.0,  999.0,   -0.2,   -0.2,   -0.0,   -0.0,    0.4,    0.3,    0.3,    1.2,    1.8,    1.4,    1.4,    2.3,    3.0,    3.4,    2.8,    1.7,    1.4,    1.0,    1.0,    0.8,    0.7,    0.1,    0.2,    0.1,    0.4,    0.0,   -0.0,    0.0,   -0.1,   -0.1,    0.0,   -0.0,    0.3,  999.0,   -0.3,   -0.0,   -0.2,   -0.1,    0.1,   -0.1,    0.0,    0.0,    0.1,   -0.0,    0.1,    0.0,   -0.0,    0.1,   -0.0,    0.1,    0.1,   -0.1,   -0.3,   -0.0,    0.1,   -0.2,    0.1,   -0.3,   -0.1,   -0.0,    0.0,    0.0,   -0.1,   -0.4,   -0.5,   -0.0,  999.0,  999.0,   -0.3,  999.0,    0.1,  999.0,  999.0,  999.0,  999.0,  999.0,  999.0,  999.0
2015/10/02 15:10,  999.0,   -0.4,   -0.3,    0.2,    0.2,  999.0,  999.0,  999.0,  999.0,    1.3,    0.7,    0.0,    0.4,    1.5,    1.7,    2.1,    2.2,    2.1,    2.0,    1.1,    1.9,    2.4,  999.0,   -0.1,    0.8,    0.6,    0.1,    0.1,   -0.0,    0.1,    0.1,   -0.0,   -0.1,    0.1,    0.1,    0.2,    0.1,   -0.3,    0.0,    0.1,   -0.0,   -0.1,   -0.0,    0.0,    0.0,    0.0,    0.0,    0.1,    0.0,   -0.2,   -0.1,   -0.0,    0.1,    0.0,   -0.0,    0.0,    0.2,    0.1,    0.2,    0.1,   -0.1,    0.1,    0.0,    0.1,    0.0,   -0.2,  999.0,  999.0,   -0.1,  999.0,  999.0,  999.0,  999.0,  999.0,  999.0,  999.0,  999.0,  999.0,  999.0,  999.0
2015/10/02 15:20,  999.0,   -0.1,    0.0,    0.1,   -0.1,    0.1,    0.1,   -0.0,    0.8,    1.0,    2.3,    1.3,    0.2,    1.5,    2.2,    1.6,    0.2,    2.8,    1.2,    0.9,    1.4,    2.6,    3.1,    1.5,    0.7,    0.4,    0.3,    0.0,    0.1,   -0.1,   -0.0,    0.1,    0.2,   -0.1,    0.0,   -0.2,    0.1,   -0.0,    0.0,   -0.0,   -0.0,    0.0,    0.1,    0.1,    0.0,   -0.0,   -0.1,   -0.1,    0.1,   -0.0,    0.0,   -0.0,   -0.0,   -0.0,    0.1,   -0.1,   -0.0,    0.0,    0.1,    0.2,   -0.2,    0.1,    0.0,   -0.0,   -0.1,    0.1,    0.2,   -0.2,  999.0,  999.0,  999.0,  999.0,  999.0,  999.0,  999.0,  999.0,  999.0,  999.0,  999.0,  999.0
2015/10/02 15:30,  999.0,    0.5,    0.3,   -0.1,    0.2,    0.1,    0.5,    0.2,    0.3,    1.4,    2.8,    3.4,    2.6,    1.3,    1.5,   -0.9,    0.1,    1.1,    1.7,    3.3,    4.1,    4.0,  999.0,    2.0,    0.7,    0.1,    0.0,   -0.1,    0.1,    0.2,    0.1,    0.0,    0.1,   -0.1,    0.0,   -0.0,  999.0,    0.3,    0.1,    0.0,   -0.0,   -0.3,   -0.0,    0.2,    0.1,    0.0,    0.1,   -0.0,   -0.0,    0.1,   -0.1,   -0.0,    0.0,   -0.0,   -0.1,    0.1,    0.1,    0.1,    0.0,    0.1,    0.1,    0.1,    0.1,    0.1,    0.1,    0.0,   -0.0,   -0.1,  999.0,  999.0,  999.0,  999.0,  999.0,  999.0,  999.0,  999.0,  999.0,  999.0,  999.0,  999.0
2015/10/02 15:40,  999.0,   -0.1,   -0.0,    0.1,    0.4,    0.4,    0.2,    0.3,    0.2,    0.1,    0.4,    1.2,    0.8,    1.8,    1.5,    1.0,    1.1,    1.2,    0.9,    2.0,    3.1,    2.1,    1.0,    0.6,    0.2,    0.0,    0.1,    0.1,   -0.0,    0.2,    0.0,    0.1,    0.2,   -0.0,   -0.0,   -0.1,    0.1,    0.0,    0.2,    0.1,   -0.0,   -0.0,    0.1,    0.0,   -0.0,   -0.1,   -0.0,   -0.1,    0.0,    0.0,    0.1,    0.0,   -0.1,   -0.0,    0.0,   -0.1,    0.1,   -0.0,    0.0,   -0.0,   -0.0,   -0.2,   -0.0,    0.2,  999.0,    0.0,    0.0,    0.1,    0.1,    0.0,  999.0,  999.0,  999.0,  999.0,  999.0,  999.0,  999.0,  999.0,  999.0,  999.0
2015/10/02 15:50,  999.0,    0.1,    0.2,   -0.0,   -0.0,    0.3,    0.4,    0.2,    0.4,    0.1,    0.8,    0.9,    0.4,    0.9,    1.2,    1.4,    1.4,    0.7,    0.7,    1.4,    2.2,    1.0,    1.7,    0.2,   -0.3,   -0.1,    0.1,    0.0,    0.1,    0.0,   -0.1,   -0.0,    0.0,   -0.1,    0.1,    0.0,   -0.1,    0.2,    0.0,   -0.0,   -0.0,   -0.0,   -0.1,    0.0,   -0.0,   -0.0,   -0.0,   -0.1,   -0.1,   -0.0,   -0.0,    0.0,    0.0,   -0.0,    0.0,   -0.1,    0.1,   -0.1,   -0.0,   -0.0,   -0.0,   -0.0,    0.1,    0.1,    0.0,    0.1,    0.1,    0.1,   -0.1,    0.3,  999.0,  999.0,  999.0,  999.0,  999.0,  999.0,  999.0,  999.0,  999.0,  999.0
2015/10/02 16:00,  999.0,    0.5,    0.5,    0.1,   -0.2,   -0.3,    1.0,   -0.3,    0.4,    0.9,    0.0,    0.2,    0.4,    1.1,    1.0,    1.1,   -0.5,    0.2,    1.4,    1.8,    1.3,    1.0,    0.3,    0.1,    0.1,    0.1,    0.1,    0.3,   -0.0,   -0.1,    0.1,    0.1,    0.1,  999.0,   -0.0,  999.0,   -0.3,    0.1,    0.2,    0.2,    0.1,   -0.1,    0.0,    0.0,    0.1,   -0.1,    0.0,    0.1,   -0.1,   -0.0,   -0.1,    0.0,   -0.0,   -0.1,    0.1,    0.1,   -0.1,   -0.2,   -0.1,    0.0,   -0.1,    0.1,   -0.0,   -0.1,    0.0,   -0.1,    0.1,   -0.2,   -0.2,  999.0,  999.0,  999.0,  999.0,  999.0,  999.0,  999.0,  999.0,  999.0,  999.0,  999.0
2015/10/02 16:10,  999.0,   -0.0,   -0.6,   -0.2,   -0.2,   -0.2,    0.6,   -0.2,   -0.5,   -0.3,    1.5,    3.7,    3.9,    3.2,    4.2,    3.8,    3.1,    4.7,    3.8,    3.5,    3.0,    1.2,    0.0,    0.1,    0.0,   -0.0,    0.1,    0.0,   -0.1,    0.2,    0.4,   -0.1,   -0.4,    0.1,    0.1,  999.0,  999.0,   -0.2,   -0.1,   -0.1,   -0.2,   -0.1,   -0.1,   -0.0,   -0.0,    0.0,    0.0,   -0.1,   -0.0,    0.0,    0.0,   -0.1,   -0.0,   -0.0,   -0.0,    0.0,    0.0,    0.1,   -0.1,   -0.0,    0.1,   -0.1,    0.1,   -0.1,    0.1,    0.1,    0.2,   -0.0,    0.1,  999.0,  999.0,  999.0,  999.0,  999.0,  999.0,  999.0,  999.0,  999.0,  999.0,  999.0
2015/10/02 16:20,  999.0,    0.0,   -0.2,   -0.4,    0.2,   -0.2,   -0.3,    0.7,    0.7,    1.3,  999.0,    2.1,    2.5,  999.0,    9.2,    4.0,  999.0,    3.9,    4.2,    2.9,    0.5,    0.1,   -0.1,   -0.4,    0.2,    0.3,   -0.2,    0.0,    0.5,    0.3,   -0.1,  999.0,    0.2,   -0.0,   -0.0,  999.0,  999.0,  999.0,   -0.0,    0.0,   -0.2,   -0.1,    0.1,    0.1,    0.0,    0.1,  999.0,   -0.1,   -0.0,   -0.1,   -0.1,    0.0,   -0.1,   -0.0,    0.1,   -0.1,    0.2,    0.0,    0.1,    0.1,   -0.2,    0.2,   -0.2,   -0.1,   -0.1,    0.2,    0.3,    0.0,    0.1,  999.0,  999.0,  999.0,  999.0,  999.0,  999.0,  999.0,  999.0,  999.0,  999.0,  999.0
2015/10/02 16:30,  999.0,    0.3,   -0.1,   -0.2,    0.4,    0.7,    0.3,    0.4,    0.7,    1.5,    3.1,    3.3,    5.6,    6.7,  999.0,   10.0,  999.0,    6.9,    4.5,    0.6,    0.1,   -0.2,   -0.2,    0.1,    0.2,    0.1,    0.1,    0.1,    0.0,   -0.0,   -0.1,   -0.2,    0.1,   -0.0,   -0.2,    0.1,    0.0,    0.1,   -0.0,    0.0,   -0.1,   -0.1,   -0.1,   -0.1,   -0.0,    0.1,   -0.1,    0.1,   -0.1,   -0.0,   -0.1,   -0.2,    0.1,   -0.0,    0.0,   -0.1,   -0.0,   -0.1,    0.1,    0.0,   -0.1,    0.1,    0.0,   -0.2,    0.0,   -0.0,    0.1,  999.0,    0.1,  999.0,  999.0,  999.0,  999.0,  999.0,  999.0,  999.0,  999.0,  999.0,  999.0,  999.0
2015/10/02 16:40,  999.0,  999.0,   -0.2,   -0.5,    0.4,   -0.1,    0.6,    0.9,    0.3,   -0.3,   -1.0,    0.9,    2.8,    4.4,    3.9,    6.4,    5.9,    5.1,    2.7,    1.5,    0.4,   -0.1,    0.0,    0.0,    0.1,   -0.0,    0.1,    0.1,   -0.1,   -0.1,    0.2,   -0.1,   -0.1,    0.0,    0.0,    0.2,    0.2,   -0.0,   -0.1,    0.0,   -0.1,   -0.1,    0.1,    0.0,    0.1,   -0.1,    0.0,    0.1,   -0.0,    0.1,    0.2,    0.1,   -0.1,   -0.1,   -0.1,   -0.0,    0.2,   -0.2,    0.1,   -0.1,   -0.1,    0.0,    0.2,    0.0,    0.1,    0.0,   -0.3,   -0.0,  999.0,  999.0,  999.0,  999.0,  999.0,  999.0,  999.0,  999.0,  999.0,  999.0,  999.0,  999.0
2015/10/02 16:50,  999.0,  999.0,   -0.3,    0.6,    0.3,    0.4,    0.7,    0.9,    0.2,    0.2,    1.1,    2.4,    3.0,    4.7,    3.4,    5.2,    6.3,    4.1,    3.4,    0.7,    0.2,   -0.1,    0.0,   -0.1,    0.2,    0.0,   -0.1,   -0.2,    0.0,   -0.0,   -0.0,   -0.1,   -0.1,    0.1,   -0.1,   -0.1,   -0.2,   -0.1,   -0.0,    0.0,   -0.1,   -0.1,   -0.0,   -0.1,   -0.0,    0.1,    0.0,   -0.0,   -0.0,    0.1,   -0.0,    0.0,   -0.0,    0.2,    0.2,   -0.0,   -0.3,    0.2,   -0.0,   -0.1,    0.1,    0.2,   -0.1,    0.1,    0.1,    0.1,    0.4,    0.2,   -0.1,  999.0,  999.0,  999.0,  999.0,  999.0,  999.0,  999.0,  999.0,  999.0,  999.0,  999.0
2015/10/02 17:00,  999.0,   -0.2,   -0.4,   -0.2,    0.2,   -0.1,    0.4,    0.1,    0.5,    0.4,    1.4,    2.3,    3.5,    4.5,    6.6,    7.3,    4.7,    2.0,    1.0,    0.4,    0.1,   -0.1,   -0.1,   -0.1,   -0.0,    0.0,   -0.1,   -0.2,   -0.0,   -0.2,   -0.1,   -0.0,   -0.0,    0.0,    0.1,   -0.1,   -0.1,    0.1,   -0.1,   -0.1,   -0.0,   -0.1,    0.1,    0.0,   -0.1,   -0.0,    0.2,   -0.1,   -0.0,    0.1,   -0.1,    0.1,   -0.1,   -0.0,   -0.1,   -0.1,    0.0,    0.1,    0.0,   -0.1,    0.1,   -0.2,   -0.1,   -0.0,    0.4,   -0.1,    0.1,    0.0,   -0.2,    0.2,  999.0,   -0.1,  999.0,  999.0,  999.0,  999.0,  999.0,  999.0,  999.0,  999.0
2015/10/02 17:10,  999.0,   -2.0,    3.9,    5.6,    6.1,    2.4,    2.7,    3.5,    4.0,    3.1,  999.0,    7.7,    4.7,    6.8,    9.2,    7.4,    5.3,    4.7,    1.9,    0.8,    0.1,    0.1,    0.2,   -0.1,    0.0,    0.0,   -0.1,    0.1,   -0.0,   -0.2,   -0.0,    0.1,    0.1,   -0.1,    0.1,    0.2,    0.1,   -0.0,   -0.0,   -0.2,   -0.1,   -0.1,   -0.1,    0.0,    0.1,    0.1,    0.1,   -0.0,   -0.1,    0.0,    0.1,   -0.1,   -0.1,   -0.1,   -0.0,   -0.0,   -0.2,    0.1,    0.1,    0.1,   -0.1,   -0.0,   -0.0,   -0.1,   -0.1,    0.1,   -0.0,  999.0,  999.0,  999.0,  999.0,  999.0,  999.0,  999.0,  999.0,  999.0,  999.0,  999.0,  999.0,  999.0
2015/10/02 17:20,  999.0,    0.1,   -0.3,   -0.2,    0.1,   -0.1,   -0.7,    1.5,    3.8,    1.7,    0.6,    4.0,    3.9,    5.2,    5.6,    4.2,    2.4,    0.7,    0.5,    0.0,    0.1,   -0.0,    0.0,   -0.1,    0.1,   -0.1,    0.1,   -0.1,   -0.0,    0.0,    0.0,   -0.1,   -0.1,   -0.0,   -0.0,    0.2,    0.2,    0.2,    0.0,   -0.1,   -0.1,   -0.0,    0.0,    0.0,   -0.1,   -0.1,   -0.0,   -0.1,    0.1,    0.0,    0.2,   -0.1,   -0.1,    0.1,   -0.2,   -0.1,    0.0,   -0.1,   -0.1,   -0.0,    0.0,    0.0,   -0.2,    0.0,    0.1,    0.3,  999.0,  999.0,    0.1,  999.0,  999.0,  999.0,  999.0,  999.0,  999.0,  999.0,  999.0,  999.0,  999.0,  999.0
2015/10/02 17:30,  999.0,   -0.5,   -0.2,   -0.2,   -0.4,    0.2,    1.0,    1.5,    1.3,    0.6,    0.5,    1.8,    3.4,    4.2,    4.0,    3.8,    2.3,    0.6,   -0.1,    0.0,   -0.0,    0.0,    0.1,    0.0,    0.0,   -0.1,   -0.1,   -0.1,   -0.0,   -0.0,   -0.2,    0.0,   -0.1,    0.0,   -0.1,    0.1,    0.0,    0.0,    0.1,   -0.0,   -0.2,   -0.0,   -0.2,   -0.0,   -0.1,   -0.0,    0.0,    0.0,   -0.1,    0.0,   -0.1,   -0.2,   -0.4,    0.1,   -0.1,   -0.1,    0.1,    0.0,    0.0,   -0.0,    0.2,    0.2,    0.4,    0.0,   -0.0,  999.0,  999.0,  999.0,  999.0,  999.0,  999.0,  999.0,  999.0,  999.0,  999.0,  999.0,  999.0,  999.0,  999.0,  999.0
2015/10/02 17:40,  999.0,   -0.1,    0.3,    0.5,    0.5,    0.8,    0.1,    0.1,   -0.1,    0.1,    0.5,    2.1,    3.2,    2.7,    1.8,    2.0,    1.1,    0.4,   -0.0,    0.0,    0.0,   -0.0,    0.0,   -0.0,    0.0,    0.0,   -0.0,   -0.1,    0.0,    0.0,    0.0,   -0.0,    0.1,    0.0,   -0.2,    0.4,    0.1,    0.1,   -0.2,   -0.0,   -0.2,   -0.0,    0.1,    0.0,   -0.2,   -0.1,   -0.2,   -0.2,   -0.1,    0.0,    0.0,   -0.0,   -0.0,   -0.1,   -0.1,    0.1,   -0.0,    0.0,    0.2,   -0.1,   -0.1,   -0.0,    0.0,   -0.1,   -0.0,   -0.0,    0.0,    0.1,  999.0,  999.0,  999.0,  999.0,  999.0,  999.0,  999.0,  999.0,  999.0,  999.0,  999.0,  999.0
2015/10/02 17:50,  999.0,    0.5,    1.4,   -1.0,    0.4,    1.0,   -0.1,    1.1,    2.6,    4.5,    2.7,    5.8,    4.8,    5.5,    5.8,    5.4,    5.0,    3.5,    0.5,   -0.2,   -0.0,    0.1,   -0.0,   -0.2,   -0.0,   -0.0,   -0.0,    0.0,    0.0,    0.0,   -0.1,    0.1,   -0.1,   -0.0,   -0.2,    0.2,   -0.1,    0.0,    0.2,   -0.1,   -0.2,   -0.0,    0.0,    0.0,    0.0,   -0.1,    0.1,    0.0,    0.2,   -0.0,   -0.1,   -0.1,    0.2,   -0.1,    0.1,   -0.0,    0.0,   -0.1,   -0.1,    0.1,   -0.1,   -0.1,    0.1,    0.0,   -0.1,    0.1,    0.2,    0.1,  999.0,  999.0,  999.0,  999.0,  999.0,  999.0,  999.0,  999.0,  999.0,  999.0,  999.0,  999.0
2015/10/02 18:00,  999.0,   -0.0,   -0.2,    1.3,    0.8,    1.1,  999.0,    1.9,  999.0,    3.4,  999.0,  999.0,  999.0,   -0.8,   -0.3,    0.5,    0.3,  999.0,    0.1,   -0.3,   -0.0,    0.0,   -0.0,    0.2,   -0.1,    0.1,   -0.1,    0.0,    0.0,   -0.3,   -0.0,    0.0,    0.0,    0.0,   -0.2,   -0.3,   -0.0,   -0.0,    0.3,   -0.2,   -0.0,   -0.2,   -0.0,   -0.0,   -0.0,    0.0,   -0.1,   -0.0,    0.0,    0.2,   -0.1,    0.2,   -0.1,    0.1,    0.0,    0.1,    0.0,    0.1,   -0.3,   -0.1,   -0.0,   -0.0,    0.0,    0.0,    0.1,    0.0,    0.2,  999.0,  999.0,  999.0,  999.0,  999.0,  999.0,  999.0,  999.0,  999.0,  999.0,  999.0,  999.0,  999.0
2015/10/02 18:10,  999.0,  999.0,  999.0,    4.2,    4.6,  999.0,    3.4,  999.0,    3.6,  999.0,    4.7,  999.0,  999.0,    5.7,  999.0,    4.1,    3.4,    1.0,    2.5,    2.0,    0.1,    0.9,    0.3,   -0.1,    0.1,   -0.1,   -0.1,   -0.0,    0.1,   -0.0,   -0.2,    0.0,    0.1,    0.2,    0.3,    0.1,   -0.1,   -0.1,   -0.3,   -0.2,   -0.2,   -0.0,    0.1,    0.0,   -0.0,    0.0,    0.2,    0.0,   -0.0,    0.1,   -0.0,    0.2,    0.0,    0.1,   -0.2,   -0.1,   -0.1,    0.2,   -0.3,    0.1,   -0.0,    0.2,   -0.0,  999.0,   -0.2,    0.1,    0.1,  999.0,  999.0,  999.0,  999.0,  999.0,  999.0,  999.0,  999.0,  999.0,  999.0,  999.0,  999.0,  999.0
2015/10/02 18:20,  999.0,  999.0,  999.0,    1.9,   -0.9,    2.9,   -0.3,  999.0,  999.0,   -4.2,  999.0,  999.0,  999.0,  999.0,  999.0,  999.0,  999.0,  999.0,    0.1,  999.0,   -0.2,    0.1,    0.2,   -0.2,   -0.5,   -0.2,   -0.2,   -0.1,   -0.2,    0.2,   -0.2,    0.0,    0.1,   -0.0,   -0.0,    0.0,   -0.2,   -0.0,   -0.0,   -0.1,   -0.2,   -0.3,   -0.2,   -0.0,   -0.1,   -0.0,    0.0,   -0.0,   -0.2,    0.1,   -0.1,    0.1,    0.1,   -0.1,   -0.1,   -0.0,    0.1,    0.1,    0.1,    0.0,   -0.2,   -0.1,    0.0,   -0.1,   -0.1,   -0.1,  999.0,    0.7,  999.0,  999.0,  999.0,  999.0,  999.0,  999.0,  999.0,  999.0,  999.0,  999.0,  999.0,  999.0
2015/10/02 18:30,  999.0,  999.0,  999.0,  999.0,  999.0,  999.0,  999.0,  999.0,    5.7,    7.4,    4.5,  999.0,    4.7,  999.0,    1.5,    1.4,    1.1,    0.4,   -0.1,   -0.0,    0.0,    0.0,    0.0,   -0.0,   -0.0,    0.1,   -0.0,   -0.2,    0.2,    0.1,    0.0,   -0.0,   -0.1,   -0.0,   -0.1,   -0.1,    0.2,    0.1,   -0.0,   -0.0,   -0.0,    0.0,   -0.1,   -0.1,    0.1,   -0.1,   -0.1,    0.1,   -0.1,    0.2,    0.0,    0.0,   -0.0,    0.0,   -0.0,   -0.0,   -0.0,   -0.1,   -0.1,    0.2,   -0.1,   -0.4,    0.1,   -0.1,    0.1,    0.0,  999.0,   -0.1,  999.0,  999.0,  999.0,  999.0,  999.0,  999.0,  999.0,  999.0,  999.0,  999.0,  999.0,  999.0
2015/10/02 18:40,  999.0,  999.0,  999.0,  999.0,  999.0,  999.0,  999.0,  999.0,    4.9,  999.0,  999.0,    1.6,  999.0,   -1.2,   -0.1,    0.2,   -0.2,   -0.0,   -0.0,   -0.0,   -0.0,    0.0,    0.1,   -0.0,    0.1,    0.0,   -0.0,    0.1,    0.0,   -0.0,    0.0,   -0.1,   -0.1,    0.0,    0.1,    0.1,   -0.0,    0.0,    0.0,   -0.0,   -0.1,   -0.1,   -0.0,    0.1,    0.1,   -0.0,    0.1,   -0.0,   -0.0,    0.3,    0.3,    0.2,    0.0,    0.0,    0.0,    0.2,   -0.0,   -0.0,   -0.0,   -0.2,   -0.2,    0.1,   -0.1,    0.0,   -0.1,    0.1,  999.0,  999.0,  999.0,  999.0,  999.0,  999.0,  999.0,  999.0,  999.0,  999.0,  999.0,  999.0,  999.0,  999.0
2015/10/02 18:50,  999.0,  999.0,  999.0,  999.0,  999.0,  999.0,  999.0,  999.0,  999.0,  999.0,  999.0,  999.0,    2.1,    1.8,    1.1,    1.2,    1.1,    0.5,    0.3,   -0.0,   -0.0,    0.1,    0.1,   -0.0,   -0.0,    0.1,   -0.0,    0.0,    0.1,    0.1,   -0.0,   -0.0,    0.0,   -0.0,   -0.1,   -0.2,   -0.2,    0.0,    0.0,   -0.0,   -0.1,   -0.1,    0.1,    0.1,   -0.0,    0.0,    0.1,    0.1,    0.0,   -0.1,   -0.1,   -0.1,   -0.0,   -0.1,    0.0,    0.0,    0.1,    0.1,    0.1,    0.0,   -0.2,    0.2,    0.2,   -0.1,   -0.1,   -0.1,  999.0,  999.0,  999.0,  999.0,  999.0,  999.0,  999.0,  999.0,  999.0,  999.0,  999.0,  999.0,  999.0,  999.0
2015/10/02 19:00,  999.0,  999.0,  999.0,  999.0,  999.0,  999.0,  999.0,  999.0,  999.0,  999.0,    9.1,    3.7,    1.4,    0.3,    0.3,    0.2,    0.4,    0.2,   -0.0,   -0.1,   -0.1,   -0.1,    0.0,   -0.1,    0.1,   -0.0,   -0.2,   -0.0,    0.1,    0.1,   -0.1,   -0.0,   -0.2,    0.1,   -0.1,    0.2,   -0.0,   -0.1,   -0.1,    0.0,   -0.1,   -0.1,   -0.0,   -0.0,    0.1,   -0.2,   -0.1,    0.1,    0.0,   -0.2,    0.1,    0.0,   -0.1,   -0.1,    0.1,    0.1,    0.1,   -0.0,    0.0,   -0.2,    0.0,   -0.1,   -0.1,    0.0,    0.1,    0.2,    0.2,   -0.0,  999.0,  999.0,  999.0,  999.0,  999.0,  999.0,  999.0,  999.0,  999.0,  999.0,  999.0,  999.0
2015/10/02 19:10,  999.0,  999.0,  999.0,  999.0,  999.0,  999.0,  999.0,  999.0,  999.0,    0.1,  999.0,   -0.3,    0.1,   -0.0,   -0.1,    0.0,    0.1,    0.1,   -0.0,    0.0,   -0.0,   -0.0,  999.0,   -0.1,    0.1,    0.0,    0.0,   -0.1,   -0.0,   -0.2,    0.3,   -0.1,    0.1,    0.0,   -0.2,   -0.1,   -0.1,   -0.0,   -0.0,    0.1,   -0.0,   -0.1,   -0.1,    0.0,    0.0,    0.0,    0.1,    0.1,   -0.1,    0.1,    0.2,    0.0,   -0.0,   -0.1,   -0.1,   -0.1,   -0.0,   -0.1,    0.0,   -0.2,    0.1,    0.0,   -0.1,    0.2,   -0.0,   -0.2,    0.0,   -0.0,    0.2,  999.0,  999.0,  999.0,  999.0,  999.0,  999.0,  999.0,  999.0,  999.0,  999.0,  999.0
2015/10/02 19:20,  999.0,   -0.4,   -0.8,   -0.4,   -0.1,    0.9,   -0.3,   -0.1,  999.0,    0.9,    0.5,    0.0,    0.3,   -0.0,   -0.0,    0.0,    0.1,    0.1,    0.0,    0.1,   -0.0,   -0.0,   -0.1,   -0.0,    0.1,   -0.0,   -0.1,   -0.0,    0.2,    0.2,   -0.1,   -0.0,    0.2,    0.1,   -0.0,   -0.1,   -0.1,   -0.1,   -0.1,    0.0,   -0.1,   -0.1,   -0.1,   -0.1,    0.0,    0.1,    0.1,   -0.0,    0.1,   -0.2,    0.0,    0.1,   -0.1,    0.1,    0.1,    0.0,   -0.0,   -0.2,   -0.1,   -0.1,    0.1,   -0.1,   -0.0,   -0.2,   -0.2,   -0.1,  999.0,  999.0,  999.0,  999.0,  999.0,  999.0,  999.0,  999.0,  999.0,  999.0,  999.0,  999.0,  999.0,  999.0
2015/10/02 19:30,  999.0,  999.0,  999.0,  999.0,  999.0,  999.0,    0.9,    1.1,    1.3,    1.0,    0.3,    0.2,    0.2,    0.0,    0.0,    0.1,    0.1,   -0.0,   -0.0,   -0.1,    0.1,    0.1,    0.1,    0.1,   -0.0,   -0.0,    0.0,   -0.1,   -0.1,   -0.0,    0.0,   -0.0,    0.0,    0.1,   -0.1,   -0.2,   -0.1,   -0.0,   -0.1,   -0.1,   -0.2,   -0.1,    0.1,   -0.0,    0.0,    0.0,    0.1,    0.0,    0.1,    0.0,   -0.0,   -0.2,   -0.2,   -0.1,   -0.2,    0.0,   -0.1,    0.0,   -0.1,   -0.0,    0.0,   -0.1,    0.1,   -0.2,   -0.1,   -0.0,  999.0,   -0.2,    0.0,  999.0,  999.0,  999.0,  999.0,  999.0,  999.0,  999.0,  999.0,  999.0,  999.0,  999.0
2015/10/02 19:40,  999.0,   -0.2,    0.7,  999.0,   -0.7,  999.0,  999.0,  999.0,  999.0,    0.8,    0.9,    0.7,    1.0,    0.4,    0.0,    0.1,    0.0,    0.0,   -0.0,    0.0,   -0.1,   -0.1,    0.0,   -0.0,   -0.1,   -0.0,    0.0,   -0.1,   -0.0,    0.1,    0.0,   -0.1,    0.1,    0.0,   -0.0,   -0.1,    0.1,    0.2,    0.0,   -0.1,   -0.1,   -0.2,   -0.0,   -0.0,   -0.1,    0.0,    0.0,   -0.0,   -0.0,   -0.0,   -0.2,    0.1,    0.0,    0.1,   -0.1,   -0.1,    0.1,    0.2,    0.1,   -0.1,   -0.1,   -0.0,    0.3,    0.2,   -0.1,    0.0,    0.1,   -0.1,   -0.5,  999.0,  999.0,  999.0,  999.0,  999.0,  999.0,  999.0,  999.0,  999.0,  999.0,  999.0
2015/10/02 19:50,  999.0,    2.2,    2.5,  999.0,    1.7,  999.0,    0.3,    0.7,   -0.0,    0.3,    0.9,    0.5,    0.8,    0.3,    0.3,    0.3,    0.0,   -0.1,   -0.0,   -0.0,   -0.0,    0.0,    0.0,   -0.1,    0.0,    0.1,    0.1,    0.0,   -0.1,   -0.1,   -0.1,    0.0,    0.2,    0.0,   -0.1,    0.1,    0.1,    0.1,   -0.2,    0.0,    0.0,   -0.1,    0.1,    0.0,    0.1,   -0.0,   -0.0,   -0.1,   -0.2,    0.2,   -0.2,   -0.3,   -0.1,   -0.1,    0.0,    0.0,   -0.1,   -0.0,    0.0,    0.2,   -0.1,   -0.1,   -0.1,   -0.0,    0.0,   -0.1,  999.0,  999.0,  999.0,  999.0,  999.0,  999.0,  999.0,  999.0,  999.0,  999.0,  999.0,  999.0,  999.0,  999.0
2015/10/02 20:00,  999.0,    0.4,    1.4,  999.0,    1.6,  999.0,  999.0,    0.2,    1.5,    0.4,    1.4,    0.6,    0.7,    0.6,    0.4,   -0.1,   -0.2,    0.0,    0.0,   -0.1,   -0.0,    0.1,   -0.0,   -0.0,    0.0,    0.0,   -0.0,    0.0,    0.1,    0.0,    0.0,   -0.1,   -0.1,    0.0,    0.0,   -0.1,   -0.0,   -0.1,   -0.1,    0.0,    0.0,   -0.0,   -0.0,   -0.1,   -0.0,   -0.2,   -0.0,   -0.2,    0.0,   -0.1,   -0.2,    0.1,   -0.1,    0.1,    0.0,    0.2,   -0.1,   -0.1,    0.0,    0.1,   -0.0,   -0.0,    0.1,   -0.2,   -0.1,   -0.0,  999.0,    0.3,  999.0,  999.0,  999.0,  999.0,  999.0,  999.0,  999.0,  999.0,  999.0,  999.0,  999.0,  999.0
2015/10/02 20:10,  999.0,  999.0,    0.5,    3.5,    4.8,  999.0,    1.8,  999.0,  999.0,  999.0,    2.1,    1.9,    2.0,    1.4,  999.0,    0.3,  999.0,    0.2,    0.2,   -0.0,   -0.0,    0.0,    0.1,   -0.0,    0.0,   -0.1,   -0.0,    0.1,   -0.1,   -0.0,    0.0,    0.0,    0.0,    0.2,   -0.4,   -0.1,   -0.3,   -0.0,   -0.2,   -0.1,   -0.1,   -0.1,   -0.1,   -0.0,   -0.1,   -0.1,    0.1,    0.0,    0.0,    0.0,    0.0,    0.1,    0.0,   -0.1,   -0.1,    0.0,   -0.2,    0.0,    0.2,   -0.1,   -0.0,    0.1,   -0.2,   -0.0,    0.0,   -0.2,    0.1,   -0.1,   -0.1,  999.0,  999.0,  999.0,  999.0,  999.0,  999.0,  999.0,  999.0,  999.0,  999.0,  999.0
2015/10/02 20:20,  999.0,  999.0,  999.0,  999.0,  999.0,  999.0,  999.0,  999.0,  999.0,    0.3,    0.2,    2.1,    2.7,    0.9,    1.0,    0.2,    0.6,   -0.4,   -0.1,   -0.1,   -0.1,   -0.1,    0.0,   -0.2,    0.1,    0.2,   -0.0,    0.0,    0.0,   -0.1,    0.2,    0.1,    0.1,   -0.2,    0.2,   -0.1,   -0.7,   -0.7,   -0.2,   -0.1,   -0.1,   -0.1,   -0.1,    0.0,   -0.0,   -0.2,   -0.2,   -0.0,    0.1,   -0.1,   -0.0,    0.0,    0.1,    0.1,    0.1,   -0.0,    0.1,    0.0,    0.0,    0.2,    0.0,   -0.0,   -0.2,   -0.0,   -0.2,    0.0,  999.0,  999.0,  999.0,  999.0,  999.0,  999.0,  999.0,  999.0,  999.0,  999.0,  999.0,  999.0,  999.0,  999.0
2015/10/02 20:30,  999.0,  999.0,  999.0,  999.0,  999.0,  999.0,  999.0,  999.0,    2.9,    5.4,  999.0,  999.0,    6.5,    4.8,    5.5,    5.5,    0.9,  999.0,    0.3,  999.0,  999.0,  999.0,  999.0,  999.0,   -0.1,    0.1,    0.1,   -0.1,    0.3,   -0.1,   -0.1,    0.1,    0.4,    0.0,  999.0,  999.0,    0.1,    0.0,    0.0,   -0.1,   -0.1,   -0.0,   -0.0,   -0.0,   -0.0,   -0.1,   -0.0,   -0.1,    0.0,    0.0,   -0.2,   -0.1,   -0.1,   -0.0,   -0.2,   -0.2,   -0.2,    0.3,    0.2,    0.1,    0.1,    0.0,    0.1,   -0.2,   -0.2,   -0.1,  999.0,   -0.4,    0.0,  999.0,  999.0,  999.0,  999.0,  999.0,  999.0,  999.0,  999.0,  999.0,  999.0,  999.0
2015/10/02 20:40,  999.0,  999.0,  999.0,  999.0,  999.0,  999.0,  999.0,  999.0,  999.0,  999.0,  999.0,   11.9,    9.9,    9.5,   10.2,   10.2,  999.0,  999.0,  999.0,    0.1,   -0.4,    0.1,    0.2,   -0.0,   -0.0,   -0.1,    0.1,   -0.1,    0.1,    0.4,   -0.1,   -0.3,   -0.2,    0.1,   -0.1,   -0.1,   -0.5,   -0.3,   -0.1,   -0.1,   -0.2,    0.0,    0.1,   -0.0,    0.0,    0.2,    0.2,   -0.0,    0.0,    0.1,    0.2,    0.2,   -0.0,    0.0,    0.1,    0.1,   -0.0,   -0.0,    0.1,    0.0,    0.0,    0.1,    0.0,   -0.0,   -0.0,    0.1,    0.1,    0.2,    0.0,  999.0,  999.0,  999.0,  999.0,  999.0,  999.0,  999.0,  999.0,  999.0,  999.0,  999.0
2015/10/02 20:50,  999.0,    0.9,    0.1,    1.2,  999.0,  999.0,  999.0,  999.0,  999.0,  999.0,  999.0,  999.0,  999.0,  999.0,  999.0,  999.0,    2.2,    1.8,    0.1,   -0.3,    0.2,   -0.0,   -0.1,   -0.1,   -0.1,    0.2,    0.1,    0.2,   -0.1,    0.1,    0.3,    0.1,   -0.0,   -0.3,   -0.1,   -0.1,   -0.1,    0.3,   -0.1,   -0.2,   -0.4,   -0.2,   -0.1,   -0.0,   -0.0,   -0.0,    0.1,   -0.0,    0.2,   -0.0,   -0.0,    0.0,   -0.1,   -0.2,    0.0,    0.0,   -0.3,   -0.1,   -0.0,    0.1,    0.0,    0.1,    0.2,    0.1,   -0.0,   -0.2,    0.3,  999.0,    0.0,  999.0,  999.0,  999.0,   -0.1,   -0.2,  999.0,  999.0,  999.0,  999.0,  999.0,  999.0
2015/10/02 21:00,  999.0,  999.0,  999.0,  999.0,  999.0,  999.0,  999.0,  999.0,  999.0,  999.0,  999.0,   12.9,   14.6,   12.2,   14.2,   13.8,   10.0,  999.0,  999.0,    0.0,   -0.2,   -0.2,   -0.5,   -0.3,   -0.2,    0.0,  999.0,    0.2,   -0.2,   -0.6,   -0.5,    0.2,   -0.3,    0.1,   -0.4,   -0.4,   -0.0,    0.1,   -0.2,    0.0,   -0.2,   -0.1,    0.1,   -0.1,    0.0,   -0.0,   -0.0,    0.2,    0.1,    0.2,    0.2,   -0.1,    0.0,   -0.1,   -0.0,    0.0,    0.2,   -0.1,   -0.0,    0.2,    0.1,    0.2,    0.1,  999.0,  999.0,    0.1,   -0.0,    0.2,    0.1,  999.0,  999.0,  999.0,  999.0,  999.0,  999.0,  999.0,  999.0,  999.0,  999.0,  999.0
2015/10/02 21:10,  999.0,  999.0,  999.0,  999.0,  999.0,  999.0,  999.0,  999.0,  999.0,   11.7,   13.7,   11.9,   14.2,   14.0,   14.8,   14.3,   13.9,  999.0,   13.7,  999.0,  999.0,  999.0,   -0.0,   -0.2,   -0.1,    0.0,   -0.0,    0.0,   -0.2,    0.3,   -0.1,  999.0,   -0.1,    0.2,  999.0,   -0.1,  999.0,   -0.1,   -0.3,    0.1,    0.0,   -0.1,    0.1,    0.2,   -0.1,   -0.1,   -0.2,    0.1,   -0.2,    0.0,  999.0,  999.0,   -0.1,    0.0,   -0.3,   -0.1,   -0.0,    0.2,   -0.1,    0.1,    0.0,   -0.4,   -0.1,   -0.0,   -0.3,  999.0,  999.0,  999.0,  999.0,  999.0,  999.0,   -0.1,  999.0,  999.0,  999.0,  999.0,  999.0,  999.0,  999.0,  999.0
2015/10/02 21:20,  999.0,  999.0,  999.0,  999.0,  999.0,  999.0,  999.0,  999.0,  999.0,   14.5,   14.4,   16.2,   16.4,   16.3,   16.3,   17.1,  999.0,    4.6,    3.0,    1.9,  999.0,    3.2,    3.1,    0.1,   -0.1,    0.0,   -0.2,   -0.2,    0.0,  999.0,    0.1,    0.1,   -0.0,   -0.3,  999.0,   -0.2,    0.1,   -0.1,   -0.3,    0.1,   -0.4,   -0.4,  999.0,   -0.1,   -0.0,    0.1,    0.3,    0.3,    0.5,    0.2,   -0.1,  999.0,   -0.2,   -0.1,   -0.3,   -0.3,    0.1,   -0.1,   -0.1,    0.1,    0.4,   -0.2,    0.0,  999.0,   -0.1,  999.0,  999.0,  999.0,  999.0,  999.0,  999.0,  999.0,  999.0,  999.0,  999.0,  999.0,  999.0,  999.0,  999.0,  999.0
2015/10/02 21:30,  999.0,  999.0,  999.0,   -0.9,  999.0,    5.7,  999.0,  999.0,  999.0,    6.4,  999.0,    8.3,    3.9,    2.5,    1.8,    1.2,    0.5,    0.0,   -0.0,    0.3,    0.1,    0.1,    0.2,   -0.3,    0.0,   -0.1,    0.2,    0.0,    0.1,   -0.1,   -0.1,    0.2,   -0.0,   -0.1,    0.0,   -0.0,   -0.1,   -0.2,    0.3,   -0.2,   -0.4,   -0.4,   -0.1,   -0.1,   -0.2,    0.0,   -0.1,   -0.5,    0.3,  999.0,  999.0,   -0.0,  999.0,  999.0,   -0.2,   -0.1,    0.2,  999.0,   -0.1,    0.0,    0.1,   -0.2,    0.4,  999.0,  999.0,  999.0,  999.0,    0.1,   -0.1,  999.0,  999.0,  999.0,  999.0,  999.0,  999.0,  999.0,  999.0,  999.0,  999.0,  999.0
2015/10/02 21:40,  999.0,  999.0,  999.0,  999.0,  999.0,  999.0,  999.0,  999.0,  999.0,    7.5,  999.0,    9.9,    7.0,  999.0,    3.5,    4.8,    3.9,    3.6,    4.2,    2.4,    3.0,    1.7,    1.4,    0.9,    1.0,    1.1,    1.0,    0.9,    0.9,    0.9,    0.8,    0.7,    0.8,    0.7,    1.2,    0.8,   -0.2,  999.0,    0.9,    0.2,    0.1,    0.1,    0.0,   -0.1,   -0.2,    0.1,   -0.1,   -0.2,   -0.1,    0.2,   -0.1,   -0.2,    0.2,    0.1,   -0.1,    0.1,    0.1,    0.1,    0.1,   -0.0,    0.4,   -0.1,    0.0,   -0.2,   -0.2,    0.0,   -0.2,  999.0,  999.0,  999.0,  999.0,  999.0,  999.0,  999.0,  999.0,  999.0,  999.0,  999.0,  999.0,  999.0
2015/10/02 21:50,  999.0,   -0.3,   -1.6,  999.0,  999.0,  999.0,  999.0,  999.0,  999.0,  999.0,   12.4,   11.2,   11.2,   13.0,   13.7,   10.5,    2.1,    0.5,    0.3,    0.2,    0.1,   -0.0,    0.3,   -0.7,   -0.0,    0.1,   -0.1,   -0.0,    0.2,    0.0,    0.4,   -0.1,   -0.0,   -0.1,   -0.2,    0.1,    0.1,   -0.1,   -0.1,    0.0,   -0.2,   -0.3,   -0.4,    0.0,   -0.1,   -0.1,   -0.1,    0.0,    0.0,    0.2,   -0.0,   -0.1,   -0.0,    0.2,    0.2,   -0.1,    0.1,    0.3,   -0.2,   -0.1,   -0.3,    0.1,   -0.0,   -0.1,  999.0,    0.0,   -0.1,   -0.1,    0.5,  999.0,  999.0,  999.0,  999.0,  999.0,  999.0,  999.0,  999.0,  999.0,  999.0,  999.0
2015/10/02 22:00,  999.0,  999.0,  999.0,  999.0,  999.0,  999.0,    4.3,    3.1,  999.0,    0.5,    5.6,  999.0,  999.0,  999.0,  999.0,    1.6,    0.8,    0.3,    0.2,    0.0,    0.1,    0.0,    0.5,   -0.5,   -0.2,   -0.1,    0.0,    0.2,    0.0,   -0.0,   -0.0,    0.2,    0.1,   -0.0,    0.1,    0.1,    0.0,   -0.2,   -0.1,   -0.2,   -0.2,   -0.1,   -0.1,    0.3,    0.1,    0.0,   -0.1,   -0.2,    0.0,    0.2,   -0.2,   -0.0,    0.0,    0.1,    0.2,    0.2,    0.2,    0.0,    0.1,    0.0,    0.1,    0.0,    0.0,    0.2,    0.3,   -0.3,    0.3,  999.0,   -0.1,  999.0,  999.0,  999.0,  999.0,  999.0,  999.0,  999.0,  999.0,  999.0,  999.0,  999.0
2015/10/02 22:10,  999.0,  999.0,  999.0,  999.0,    2.6,   -0.4,  999.0,  999.0,  999.0,  999.0,  999.0,  999.0,    1.3,    1.9,  999.0,    0.5,    0.8,    0.3,    0.2,    0.1,    0.3,   -0.1,    0.2,   -0.3,    0.1,    0.1,   -0.1,    0.0,   -0.2,   -0.3,    0.0,   -0.1,   -0.1,    0.1,    0.0,   -0.1,   -0.3,   -0.1,    0.0,   -0.1,    0.1,   -0.0,    0.0,    0.1,    0.0,    0.1,    0.0,   -0.0,    0.0,   -0.1,   -0.1,   -0.0,   -0.1,   -0.0,   -0.1,   -0.1,   -0.0,   -0.3,    0.0,   -0.1,   -0.0,    0.1,    0.1,    0.1,    0.2,   -0.1,   -0.2,  999.0,  999.0,  999.0,  999.0,  999.0,  999.0,  999.0,  999.0,  999.0,  999.0,  999.0,  999.0,  999.0
2015/10/02 22:20,  999.0,    0.3,    0.1,    2.3,    0.9,    4.2,    1.1,    1.4,    4.1,    2.7,    2.7,    1.1,    1.1,    1.2,  999.0,    1.1,   -0.1,   -0.4,   -0.1,    0.1,    0.2,   -0.4,    0.0,   -0.4,   -0.2,    0.0,   -0.0,    0.0,   -0.1,   -0.0,   -0.2,   -0.1,   -0.0,   -0.2,   -0.1,   -0.2,   -0.2,   -0.1,   -0.1,   -0.2,   -0.1,   -0.0,   -0.0,   -0.0,    0.1,    0.1,    0.1,    0.1,    0.2,    0.0,    0.1,    0.0,   -0.2,   -0.0,   -0.1,   -0.1,   -0.1,   -0.0,    0.1,   -0.0,   -0.1,   -0.0,   -0.1,   -0.3,  999.0,    0.1,   -0.2,   -0.1,  999.0,  999.0,  999.0,  999.0,  999.0,  999.0,  999.0,  999.0,  999.0,  999.0,  999.0,  999.0
2015/10/02 22:30,  999.0,   -0.1,  999.0,  999.0,  999.0,  999.0,  999.0,  999.0,    2.6,    3.7,    4.3,  999.0,    3.8,    2.9,    4.0,  999.0,  999.0,    0.1,    0.3,   -0.1,    1.5,    0.8,    0.9,    0.4,   -0.2,   -0.0,    0.1,   -0.1,   -0.1,   -0.0,    0.1,   -0.1,    0.0,   -0.0,    0.1,   -0.0,   -0.0,    0.2,   -0.2,   -0.1,   -0.0,   -0.0,    0.0,    0.1,    0.0,   -0.1,    0.0,    0.0,    0.0,   -0.0,   -0.1,    0.0,    0.1,    0.0,   -0.1,   -0.0,   -0.1,   -0.0,   -0.0,    0.1,   -0.1,   -0.1,    0.1,   -0.1,   -0.2,    0.1,    0.2,   -0.1,  999.0,    0.4,  999.0,  999.0,  999.0,  999.0,  999.0,  999.0,  999.0,  999.0,  999.0,  999.0
2015/10/02 22:40,  999.0,  999.0,  999.0,  999.0,  999.0,  999.0,  999.0,  999.0,  999.0,  999.0,    3.9,  999.0,    6.2,   11.2,   10.9,  999.0,  999.0,  999.0,    0.9,   -0.2,   -0.0,   -0.7,   -0.6,   -1.2,   -0.2,   -0.1,    0.1,   -0.1,   -0.0,   -0.0,   -0.1,   -0.1,    0.0,   -0.0,    0.1,   -0.0,    0.1,    0.2,    0.1,   -0.0,   -0.0,    0.0,    0.1,    0.0,    0.0,    0.1,    0.0,    0.0,   -0.1,    0.1,    0.1,    0.0,    0.1,    0.1,   -0.1,   -0.0,   -0.0,    0.0,    0.1,    0.1,    0.1,    0.0,    0.2,    0.2,    0.2,   -0.1,  999.0,   -0.0,   -0.0,  999.0,  999.0,  999.0,  999.0,  999.0,  999.0,  999.0,  999.0,  999.0,  999.0,  999.0
2015/10/02 22:50,  999.0,  999.0,  999.0,  999.0,  999.0,  999.0,  999.0,    1.0,    0.8,    2.0,    4.5,    5.3,  999.0,  999.0,   10.6,   12.0,   12.7,  999.0,  999.0,   11.7,   11.7,   12.7,   12.6,   13.0,  999.0,  999.0,  999.0,  999.0,    0.1,    0.0,   -0.0,   -0.0,   -0.1,   -0.1,   -0.0,    0.1,   -0.1,   -0.0,   -0.0,    0.0,    0.0,   -0.1,    0.0,   -0.1,    0.1,   -0.0,    0.0,   -0.0,    0.0,    0.0,   -0.1,   -0.1,   -0.1,   -0.1,    0.1,    0.1,    0.2,   -0.0,    0.2,    0.1,   -0.3,   -0.0,    0.1,   -0.1,   -0.2,   -0.4,   -0.1,    0.1,   -0.1,  999.0,  999.0,  999.0,  999.0,  999.0,  999.0,  999.0,  999.0,  999.0,  999.0,  999.0
2015/10/02 23:00,  999.0,  999.0,  999.0,  999.0,  999.0,  999.0,  999.0,  999.0,    5.1,    2.6,    4.4,    4.8,    7.3,    9.3,   10.5,   11.0,   12.3,  999.0,   10.3,   11.1,   11.6,  999.0,   11.1,  999.0,  999.0,  999.0,  999.0,  999.0,   -0.0,    0.0,   -0.1,   -0.1,   -0.0,    0.1,    0.0,   -0.1,   -0.4,    0.0,    0.0,   -0.1,   -0.1,    0.0,    0.0,   -0.0,    0.1,    0.1,    0.2,    0.2,    0.2,   -0.1,   -0.0,   -0.0,    0.0,    0.1,   -0.0,    0.1,    0.0,   -0.1,    0.0,   -0.0,   -0.0,    0.1,    0.1,   -0.2,   -0.0,   -0.1,    0.5,    0.0,  999.0,  999.0,  999.0,  999.0,  999.0,  999.0,  999.0,  999.0,  999.0,  999.0,  999.0,  999.0
2015/10/02 23:10,  999.0,  999.0,  999.0,  999.0,  999.0,    7.3,    2.2,    0.7,    3.6,    3.2,    5.2,    7.5,   11.4,    8.7,   10.3,   12.0,   13.4,  999.0,  999.0,   13.7,  999.0,  999.0,   10.1,  999.0,  999.0,  999.0,  999.0,  999.0,   -0.1,   -0.0,   -0.1,    0.0,   -0.0,   -0.0,    0.0,    0.0,    0.0,    0.0,   -0.0,    0.1,   -0.1,    0.0,   -0.0,   -0.0,   -0.0,   -0.1,    0.1,    0.1,    0.1,   -0.1,    0.0,   -0.0,   -0.1,   -0.1,   -0.2,    0.2,    0.1,    0.1,   -0.2,    0.2,    0.1,   -0.1,   -0.0,    0.1,    0.1,  999.0,    0.0,    0.2,  999.0,  999.0,  999.0,  999.0,  999.0,  999.0,  999.0,  999.0,  999.0,  999.0,  999.0,  999.0
2015/10/02 23:20,  999.0,  999.0,  999.0,  999.0,  999.0,   11.0,    6.2,   10.2,    6.9,    8.4,    8.6,   10.3,    9.4,    8.7,  999.0,  999.0,  999.0,  999.0,  999.0,  999.0,  999.0,  999.0,  999.0,  999.0,  999.0,  999.0,  999.0,  999.0,  999.0,  999.0,  999.0,  999.0,  999.0,  999.0,  999.0,  999.0,  999.0,  999.0,  999.0,  999.0,  999.0,  999.0,  999.0,  999.0,  999.0,  999.0,  999.0,  999.0,  999.0,  999.0,  999.0,  999.0,  999.0,  999.0,  999.0,  999.0,  999.0,  999.0,  999.0,  999.0,  999.0,  999.0,  999.0,  999.0,  999.0,  999.0,  999.0,  999.0,  999.0,  999.0,  999.0,  999.0,  999.0,  999.0,  999.0,  999.0,  999.0,  999.0,  999.0,  999.0
2015/10/02 23:30,  999.0,  999.0,  999.0,  999.0,  999.0,  999.0,  999.0,  999.0,  999.0,    9.0,  999.0,  999.0,  999.0,   11.8,   13.6,   14.0,   13.1,   14.4,  999.0,  999.0,  999.0,  999.0,  999.0,  999.0,   -0.9,   -0.3,    0.0,   -0.1,    0.0,   -0.1,    0.1,    0.2,    0.1,   -0.0,   -0.0,    0.1,   -0.0,    0.1,    0.1,   -0.1,   -0.1,    0.0,    0.1,    0.1,   -0.1,   -0.0,    0.2,   -0.1,    0.0,    0.1,   -0.0,    0.1,    0.1,   -0.1,    0.0,    0.0,    0.1,    0.1,    0.1,    0.1,    0.0,   -0.1,   -0.1,   -0.2,   -0.0,    0.3,    0.1,    0.2,   -0.1,  999.0,  999.0,  999.0,  999.0,  999.0,  999.0,  999.0,  999.0,  999.0,  999.0,  999.0
2015/10/02 23:40,  999.0,    0.8,  999.0,  999.0,    2.8,  999.0,  999.0,  999.0,  999.0,  999.0,  999.0,    9.8,   10.6,   11.9,   13.9,   14.1,   13.1,  999.0,  999.0,  999.0,  999.0,  999.0,  999.0,  999.0,  999.0,  999.0,   -0.3,   -0.2,   -0.0,    0.1,    0.1,   -0.1,    0.1,    0.1,   -0.1,    0.0,   -0.1,    0.1,   -0.1,    0.0,   -0.1,    0.0,   -0.2,   -0.1,   -0.1,   -0.0,   -0.1,   -0.1,   -0.1,    0.1,    0.2,    0.0,   -0.1,   -0.1,   -0.0,   -0.1,   -0.1,    0.1,    0.0,    0.0,    0.0,   -0.0,   -0.1,   -0.1,    0.0,   -0.1,    0.2,    0.2,    0.6,  999.0,  999.0,  999.0,  999.0,  999.0,  999.0,  999.0,  999.0,  999.0,  999.0,  999.0
2015/10/02 23:50,  999.0,   -0.7,   -0.8,    0.9,  999.0,  999.0,  999.0,  999.0,  999.0,  999.0,  999.0,    8.6,   10.3,  999.0,  999.0,  999.0,  999.0,  999.0,  999.0,  999.0,  999.0,  999.0,  999.0,  999.0,  999.0,    0.0,   -0.1,  999.0,    0.1,    0.1,   -0.2,    0.0,    0.0,   -0.0,    0.0,    0.6,   -0.2,    0.2,    0.2,    0.0,   -0.0,    0.0,    0.0,   -0.0,   -0.0,    0.0,    0.0,    0.0,    0.1,    0.0,    0.0,   -0.2,   -0.1,   -0.0,    0.2,   -0.2,    0.1,    0.1,   -0.2,   -0.0,   -0.2,    0.2,   -0.0,    0.1,    0.2,   -0.0,  999.0,   -0.1,  999.0,  999.0,  999.0,  999.0,  999.0,  999.0,  999.0,  999.0,  999.0,  999.0,  999.0,  999.0
